Wetterdaten: Sonntag, 04.01.2015
Datum Zeit Temp. Aussen +5cm Feuchte Auss Luftdruck Regen Sonnenschein Regendauer Solar Windben
04.01.2015 00:00 2,6 C 1,7 C 97 % 1024,1 hPa 0,0 l/m 0 min 2 min 0 W/m 12,6 km/h (3 Bft)
04.01.2015 00:02 2,6 C 1,7 C 97 % 1024,2 hPa 0,0 l/m 0 min 2 min 0 W/m 14,6 km/h (3 Bft)
04.01.2015 00:05 2,6 C 1,7 C 97 % 1024,2 hPa 0,0 l/m 0 min 2 min 0 W/m 18,8 km/h (3 Bft)
04.01.2015 00:08 2,6 C 1,7 C 97 % 1024,3 hPa 0,0 l/m 0 min 2 min 0 W/m 12,6 km/h (3 Bft)
04.01.2015 00:10 2,6 C 1,7 C 97 % 1024,4 hPa 0,0 l/m 0 min 2 min 0 W/m 14,6 km/h (3 Bft)
04.01.2015 00:12 2,7 C 1,7 C 98 % 1024,4 hPa 0,0 l/m 0 min 2 min 0 W/m 12,6 km/h (3 Bft)
04.01.2015 00:14 2,7 C 1,7 C 98 % 1024,4 hPa 0,0 l/m 0 min 2 min 0 W/m 16,7 km/h (3 Bft)
04.01.2015 00:16 2,7 C 1,7 C 98 % 1024,6 hPa 0,0 l/m 0 min 2 min 0 W/m 12,6 km/h (3 Bft)
04.01.2015 00:18 2,7 C 1,7 C 98 % 1024,6 hPa 0,0 l/m 0 min 2 min 0 W/m 14,6 km/h (3 Bft)
04.01.2015 00:20 2,7 C 1,7 C 98 % 1024,6 hPa 0,0 l/m 0 min 2 min 0 W/m 14,6 km/h (3 Bft)
04.01.2015 00:22 2,7 C 1,7 C 98 % 1024,7 hPa 0,0 l/m 0 min 2 min 0 W/m 14,6 km/h (3 Bft)
04.01.2015 00:24 2,7 C 1,7 C 98 % 1024,7 hPa 0,0 l/m 0 min 2 min 0 W/m 12,6 km/h (3 Bft)
04.01.2015 00:26 2,7 C 1,7 C 98 % 1024,7 hPa 0,0 l/m 0 min 2 min 0 W/m 18,8 km/h (3 Bft)
04.01.2015 00:28 2,8 C 1,7 C 98 % 1024,7 hPa 0,0 l/m 0 min 2 min 0 W/m 20,9 km/h (4 Bft)
04.01.2015 00:30 2,8 C 1,7 C 98 % 1024,7 hPa 0,0 l/m 0 min 2 min 0 W/m 18,8 km/h (3 Bft)
04.01.2015 00:32 2,8 C 1,7 C 98 % 1024,7 hPa 0,0 l/m 0 min 2 min 0 W/m 18,8 km/h (3 Bft)
04.01.2015 00:34 2,8 C 1,7 C 98 % 1024,8 hPa 0,0 l/m 0 min 2 min 0 W/m 14,6 km/h (3 Bft)
04.01.2015 00:36 2,8 C 1,7 C 98 % 1025,0 hPa 0,0 l/m 0 min 2 min 0 W/m 12,6 km/h (3 Bft)
04.01.2015 00:38 2,9 C 1,7 C 98 % 1025,1 hPa 0,0 l/m 0 min 2 min 0 W/m 16,7 km/h (3 Bft)
04.01.2015 00:40 2,9 C 1,7 C 98 % 1025,1 hPa 0,0 l/m 0 min 2 min 0 W/m 20,9 km/h (4 Bft)
04.01.2015 00:42 2,9 C 1,7 C 98 % 1025,1 hPa 0,0 l/m 0 min 2 min 0 W/m 16,7 km/h (3 Bft)
04.01.2015 00:44 2,9 C 1,7 C 98 % 1025,1 hPa 0,0 l/m 0 min 2 min 0 W/m 18,8 km/h (3 Bft)
04.01.2015 00:46 2,9 C 1,7 C 98 % 1025,2 hPa 0,0 l/m 0 min 2 min 0 W/m 23,0 km/h (4 Bft)
04.01.2015 00:48 2,9 C 1,7 C 98 % 1025,3 hPa 0,0 l/m 0 min 2 min 0 W/m 14,6 km/h (3 Bft)
04.01.2015 00:50 2,9 C 1,7 C 98 % 1025,4 hPa 0,0 l/m 0 min 2 min 0 W/m 20,9 km/h (4 Bft)
04.01.2015 00:52 2,9 C 1,7 C 98 % 1025,4 hPa 0,0 l/m 0 min 2 min 0 W/m 25,1 km/h (4 Bft)
04.01.2015 00:54 2,9 C 1,7 C 98 % 1025,4 hPa 0,0 l/m 0 min 2 min 0 W/m 18,8 km/h (3 Bft)
04.01.2015 00:56 3,0 C 1,7 C 98 % 1025,5 hPa 0,0 l/m 0 min 2 min 0 W/m 23,0 km/h (4 Bft)
04.01.2015 00:58 3,0 C 1,7 C 98 % 1025,6 hPa 0,0 l/m 0 min 2 min 0 W/m 14,6 km/h (3 Bft)
04.01.2015 01:00 3,0 C 1,7 C 98 % 1025,6 hPa 0,0 l/m 0 min 2 min 0 W/m 10,5 km/h (2 Bft)
04.01.2015 01:02 3,0 C 1,7 C 98 % 1025,7 hPa 0,0 l/m 0 min 2 min 0 W/m 14,6 km/h (3 Bft)
04.01.2015 01:04 3,0 C 1,7 C 98 % 1025,7 hPa 0,0 l/m 0 min 2 min 0 W/m 12,6 km/h (3 Bft)
04.01.2015 01:06 2,9 C 1,7 C 98 % 1025,8 hPa 0,0 l/m 0 min 2 min 0 W/m 16,7 km/h (3 Bft)
04.01.2015 01:08 2,9 C 1,1 C 98 % 1025,8 hPa 0,0 l/m 0 min 2 min 0 W/m 16,7 km/h (3 Bft)
04.01.2015 01:10 2,9 C 1,1 C 98 % 1025,7 hPa 0,0 l/m 0 min 2 min 0 W/m 10,5 km/h (2 Bft)
04.01.2015 01:12 2,9 C 1,1 C 98 % 1025,8 hPa 0,0 l/m 0 min 2 min 0 W/m 16,7 km/h (3 Bft)
04.01.2015 01:14 2,9 C 1,1 C 98 % 1025,8 hPa 0,0 l/m 0 min 2 min 0 W/m 14,6 km/h (3 Bft)
04.01.2015 01:16 2,9 C 1,1 C 98 % 1025,7 hPa 0,0 l/m 0 min 2 min 0 W/m 18,8 km/h (3 Bft)
04.01.2015 01:18 2,8 C 1,1 C 98 % 1025,7 hPa 0,0 l/m 0 min 2 min 0 W/m 18,8 km/h (3 Bft)
04.01.2015 01:20 2,8 C 1,1 C 98 % 1025,8 hPa 0,0 l/m 0 min 2 min 0 W/m 10,5 km/h (2 Bft)
04.01.2015 01:22 2,8 C 1,1 C 98 % 1025,8 hPa 0,0 l/m 0 min 2 min 0 W/m 12,6 km/h (3 Bft)
04.01.2015 01:24 2,8 C 1,1 C 98 % 1025,8 hPa 0,0 l/m 0 min 2 min 0 W/m 12,6 km/h (3 Bft)
04.01.2015 01:26 2,8 C 1,1 C 98 % 1025,9 hPa 0,0 l/m 0 min 2 min 0 W/m 14,6 km/h (3 Bft)
04.01.2015 01:28 2,7 C 1,1 C 98 % 1026,0 hPa 0,0 l/m 0 min 2 min 0 W/m 14,6 km/h (3 Bft)
04.01.2015 01:30 2,7 C 1,1 C 98 % 1026,1 hPa 0,0 l/m 0 min 2 min 0 W/m 12,6 km/h (3 Bft)
04.01.2015 01:32 2,7 C 1,1 C 98 % 1026,1 hPa 0,0 l/m 0 min 2 min 0 W/m 14,6 km/h (3 Bft)
04.01.2015 01:34 2,7 C 1,1 C 98 % 1026,1 hPa 0,0 l/m 0 min 2 min 0 W/m 14,6 km/h (3 Bft)
04.01.2015 01:36 2,6 C 1,1 C 98 % 1026,2 hPa 0,0 l/m 0 min 2 min 0 W/m 16,7 km/h (3 Bft)
04.01.2015 01:38 2,6 C 1,1 C 98 % 1026,3 hPa 0,0 l/m 0 min 2 min 0 W/m 12,6 km/h (3 Bft)
04.01.2015 01:40 2,6 C 1,1 C 98 % 1026,3 hPa 0,0 l/m 0 min 2 min 0 W/m 14,6 km/h (3 Bft)
04.01.2015 01:42 2,6 C 1,1 C 98 % 1026,4 hPa 0,0 l/m 0 min 2 min 0 W/m 14,6 km/h (3 Bft)
04.01.2015 01:44 2,6 C 1,1 C 98 % 1026,4 hPa 0,0 l/m 0 min 2 min 0 W/m 16,7 km/h (3 Bft)
04.01.2015 01:46 2,6 C 1,1 C 98 % 1026,4 hPa 0,0 l/m 0 min 2 min 0 W/m 14,6 km/h (3 Bft)
04.01.2015 01:48 2,6 C 1,1 C 98 % 1026,3 hPa 0,0 l/m 0 min 2 min 0 W/m 10,5 km/h (2 Bft)
04.01.2015 01:50 2,6 C 1,1 C 98 % 1026,5 hPa 0,0 l/m 0 min 2 min 0 W/m 10,5 km/h (2 Bft)
04.01.2015 01:52 2,6 C 1,1 C 98 % 1026,5 hPa 0,0 l/m 0 min 2 min 0 W/m 14,6 km/h (3 Bft)
04.01.2015 01:54 2,5 C 1,1 C 98 % 1026,5 hPa 0,0 l/m 0 min 2 min 0 W/m 12,6 km/h (3 Bft)
04.01.2015 01:56 2,5 C 0,6 C 98 % 1026,5 hPa 0,0 l/m 0 min 2 min 0 W/m 10,5 km/h (2 Bft)
04.01.2015 01:58 2,5 C 0,6 C 98 % 1026,5 hPa 0,0 l/m 0 min 2 min 0 W/m 14,6 km/h (3 Bft)
04.01.2015 02:00 2,4 C 0,6 C 98 % 1026,4 hPa 0,0 l/m 0 min 2 min 0 W/m 12,6 km/h (3 Bft)
04.01.2015 02:02 2,4 C 0,6 C 98 % 1026,5 hPa 0,0 l/m 0 min 2 min 0 W/m 16,7 km/h (3 Bft)
04.01.2015 02:04 2,4 C 0,6 C 98 % 1026,5 hPa 0,0 l/m 0 min 2 min 0 W/m 14,6 km/h (3 Bft)
04.01.2015 02:06 2,4 C 0,6 C 98 % 1026,5 hPa 0,0 l/m 0 min 2 min 0 W/m 12,6 km/h (3 Bft)
04.01.2015 02:08 2,3 C 0,6 C 98 % 1026,6 hPa 0,0 l/m 0 min 2 min 0 W/m 16,7 km/h (3 Bft)
04.01.2015 02:10 2,3 C 0,6 C 98 % 1026,6 hPa 0,0 l/m 0 min 2 min 0 W/m 16,7 km/h (3 Bft)
04.01.2015 02:12 2,3 C 0,6 C 98 % 1026,6 hPa 0,0 l/m 0 min 2 min 0 W/m 14,6 km/h (3 Bft)
04.01.2015 02:14 2,3 C 0,6 C 98 % 1026,8 hPa 0,0 l/m 0 min 2 min 0 W/m 12,6 km/h (3 Bft)
04.01.2015 02:16 2,3 C 0,6 C 98 % 1026,9 hPa 0,0 l/m 0 min 2 min 0 W/m 8,4 km/h (2 Bft)
04.01.2015 02:18 2,2 C 0,6 C 98 % 1026,8 hPa 0,0 l/m 0 min 2 min 0 W/m 8,4 km/h (2 Bft)
04.01.2015 02:20 2,2 C 0,6 C 98 % 1026,9 hPa 0,0 l/m 0 min 2 min 0 W/m 12,6 km/h (3 Bft)
04.01.2015 02:22 2,2 C 0,6 C 98 % 1027,0 hPa 0,0 l/m 0 min 2 min 0 W/m 8,4 km/h (2 Bft)
04.01.2015 02:24 2,2 C 0,6 C 98 % 1027,0 hPa 0,0 l/m 0 min 2 min 0 W/m 8,4 km/h (2 Bft)
04.01.2015 02:26 2,2 C 0,6 C 98 % 1027,0 hPa 0,0 l/m 0 min 2 min 0 W/m 16,7 km/h (3 Bft)
04.01.2015 02:28 2,2 C 0,6 C 98 % 1027,0 hPa 0,0 l/m 0 min 2 min 0 W/m 16,7 km/h (3 Bft)
04.01.2015 02:30 2,2 C 0,6 C 98 % 1027,1 hPa 0,0 l/m 0 min 2 min 0 W/m 18,8 km/h (3 Bft)
04.01.2015 02:32 2,1 C 0,6 C 98 % 1027,1 hPa 0,0 l/m 0 min 2 min 0 W/m 18,8 km/h (3 Bft)
04.01.2015 02:34 2,1 C 0,6 C 98 % 1027,1 hPa 0,0 l/m 0 min 2 min 0 W/m 12,6 km/h (3 Bft)
04.01.2015 02:36 2,1 C 0,6 C 98 % 1027,2 hPa 0,0 l/m 0 min 2 min 0 W/m 10,5 km/h (2 Bft)
04.01.2015 02:38 2,1 C 0,6 C 98 % 1027,2 hPa 0,0 l/m 0 min 2 min 0 W/m 18,8 km/h (3 Bft)
04.01.2015 02:40 2,1 C 0,6 C 98 % 1027,2 hPa 0,0 l/m 0 min 2 min 0 W/m 10,5 km/h (2 Bft)
04.01.2015 02:42 2,1 C 0,6 C 98 % 1027,3 hPa 0,0 l/m 0 min 2 min 0 W/m 16,7 km/h (3 Bft)
04.01.2015 02:44 2,1 C 0,6 C 98 % 1027,3 hPa 0,0 l/m 0 min 2 min 0 W/m 18,8 km/h (3 Bft)
04.01.2015 02:46 2,1 C 0,6 C 98 % 1027,3 hPa 0,0 l/m 0 min 2 min 0 W/m 18,8 km/h (3 Bft)
04.01.2015 02:48 2,1 C 0,6 C 98 % 1027,4 hPa 0,0 l/m 0 min 2 min 0 W/m 10,5 km/h (2 Bft)
04.01.2015 02:50 2,1 C 0,6 C 98 % 1027,4 hPa 0,0 l/m 0 min 2 min 0 W/m 10,5 km/h (2 Bft)
04.01.2015 02:52 2,1 C 0,6 C 98 % 1027,5 hPa 0,0 l/m 0 min 2 min 0 W/m 14,6 km/h (3 Bft)
04.01.2015 02:54 2,1 C 0,6 C 98 % 1027,5 hPa 0,0 l/m 0 min 2 min 0 W/m 14,6 km/h (3 Bft)
04.01.2015 02:56 2,1 C 0,6 C 98 % 1027,5 hPa 0,0 l/m 0 min 2 min 0 W/m 12,6 km/h (3 Bft)
04.01.2015 02:58 2,1 C 0,6 C 98 % 1027,5 hPa 0,0 l/m 0 min 2 min 0 W/m 18,8 km/h (3 Bft)
04.01.2015 03:00 2,1 C 0,6 C 98 % 1027,6 hPa 0,0 l/m 0 min 2 min 0 W/m 10,5 km/h (2 Bft)
04.01.2015 03:02 2,1 C 0,6 C 98 % 1027,6 hPa 0,0 l/m 0 min 2 min 0 W/m 10,5 km/h (2 Bft)
04.01.2015 03:04 2,1 C 0,6 C 98 % 1027,5 hPa 0,0 l/m 0 min 2 min 0 W/m 10,5 km/h (2 Bft)
04.01.2015 03:06 2,1 C 0,6 C 98 % 1027,6 hPa 0,0 l/m 0 min 2 min 0 W/m 8,4 km/h (2 Bft)
04.01.2015 03:08 2,1 C 0,6 C 98 % 1027,6 hPa 0,0 l/m 0 min 2 min 0 W/m 8,4 km/h (2 Bft)
04.01.2015 03:10 2,0 C 0,6 C 98 % 1027,6 hPa 0,0 l/m 0 min 2 min 0 W/m 10,5 km/h (2 Bft)
04.01.2015 03:12 2,0 C 0,6 C 98 % 1027,6 hPa 0,0 l/m 0 min 2 min 0 W/m 8,4 km/h (2 Bft)
04.01.2015 03:14 2,0 C 0,6 C 98 % 1027,7 hPa 0,0 l/m 0 min 2 min 0 W/m 8,4 km/h (2 Bft)
04.01.2015 03:16 2,0 C 0,6 C 98 % 1027,6 hPa 0,0 l/m 0 min 2 min 0 W/m 10,5 km/h (2 Bft)
04.01.2015 03:18 1,9 C 0,6 C 98 % 1027,6 hPa 0,0 l/m 0 min 2 min 0 W/m 12,6 km/h (3 Bft)
04.01.2015 03:20 1,9 C 0,6 C 98 % 1027,6 hPa 0,0 l/m 0 min 2 min 0 W/m 12,6 km/h (3 Bft)
04.01.2015 03:22 1,9 C 0,6 C 98 % 1027,8 hPa 0,0 l/m 0 min 2 min 0 W/m 12,6 km/h (3 Bft)
04.01.2015 03:24 1,9 C 0,6 C 98 % 1027,8 hPa 0,0 l/m 0 min 2 min 0 W/m 10,5 km/h (2 Bft)
04.01.2015 03:26 1,9 C 0,6 C 98 % 1027,8 hPa 0,0 l/m 0 min 2 min 0 W/m 12,6 km/h (3 Bft)
04.01.2015 03:28 1,9 C 0,6 C 98 % 1027,8 hPa 0,0 l/m 0 min 2 min 0 W/m 12,6 km/h (3 Bft)
04.01.2015 03:30 1,8 C 0,6 C 98 % 1027,8 hPa 0,0 l/m 0 min 2 min 0 W/m 10,5 km/h (2 Bft)
04.01.2015 03:32 1,8 C 0,0 C 98 % 1027,9 hPa 0,0 l/m 0 min 2 min 0 W/m 12,6 km/h (3 Bft)
04.01.2015 03:34 1,8 C 0,0 C 98 % 1027,8 hPa 0,0 l/m 0 min 2 min 0 W/m 10,5 km/h (2 Bft)
04.01.2015 03:36 1,8 C 0,0 C 98 % 1027,8 hPa 0,0 l/m 0 min 2 min 0 W/m 8,4 km/h (2 Bft)
04.01.2015 03:38 1,8 C 0,0 C 98 % 1027,9 hPa 0,0 l/m 0 min 2 min 0 W/m 6,3 km/h (2 Bft)
04.01.2015 03:40 1,8 C 0,0 C 98 % 1028,0 hPa 0,0 l/m 0 min 2 min 0 W/m 8,4 km/h (2 Bft)
04.01.2015 03:42 1,8 C 0,0 C 98 % 1028,0 hPa 0,0 l/m 0 min 2 min 0 W/m 6,3 km/h (2 Bft)
04.01.2015 03:44 1,7 C 0,0 C 98 % 1028,1 hPa 0,0 l/m 0 min 2 min 0 W/m 8,4 km/h (2 Bft)
04.01.2015 03:46 1,7 C 0,0 C 98 % 1028,1 hPa 0,0 l/m 0 min 0 min 0 W/m 10,5 km/h (2 Bft)
04.01.2015 03:48 1,7 C 0,0 C 98 % 1028,1 hPa 0,0 l/m 0 min 0 min 0 W/m 6,3 km/h (2 Bft)
04.01.2015 03:50 1,7 C 0,0 C 98 % 1028,1 hPa 0,0 l/m 0 min 0 min 0 W/m 8,4 km/h (2 Bft)
04.01.2015 03:52 1,7 C 0,0 C 98 % 1028,1 hPa 0,0 l/m 0 min 0 min 0 W/m 6,3 km/h (2 Bft)
04.01.2015 03:54 1,7 C 0,0 C 98 % 1028,1 hPa 0,0 l/m 0 min 0 min 0 W/m 6,3 km/h (2 Bft)
04.01.2015 03:56 1,7 C 0,0 C 98 % 1028,1 hPa 0,0 l/m 0 min 0 min 0 W/m 8,4 km/h (2 Bft)
04.01.2015 03:58 1,7 C 0,0 C 97 % 1028,1 hPa 0,0 l/m 0 min 0 min 0 W/m 10,5 km/h (2 Bft)
04.01.2015 04:00 1,6 C 0,0 C 97 % 1028,1 hPa 0,0 l/m 0 min 0 min 0 W/m 8,4 km/h (2 Bft)
04.01.2015 04:05 1,6 C 0,0 C 97 % 1028,2 hPa 0,0 l/m 0 min 0 min 0 W/m 6,3 km/h (2 Bft)
04.01.2015 04:06 1,6 C 0,0 C 97 % 1028,2 hPa 0,0 l/m 0 min 0 min 0 W/m 6,3 km/h (2 Bft)
04.01.2015 04:08 1,6 C 0,0 C 97 % 1028,2 hPa 0,0 l/m 0 min 0 min 0 W/m 10,5 km/h (2 Bft)
04.01.2015 04:10 1,6 C 0,0 C 98 % 1028,1 hPa 0,0 l/m 0 min 0 min 0 W/m 10,5 km/h (2 Bft)
04.01.2015 04:12 1,5 C 0,0 C 98 % 1028,2 hPa 0,0 l/m 0 min 0 min 0 W/m 10,5 km/h (2 Bft)
04.01.2015 04:14 1,5 C 0,0 C 98 % 1028,2 hPa 0,0 l/m 0 min 0 min 0 W/m 10,5 km/h (2 Bft)
04.01.2015 04:16 1,5 C 0,0 C 98 % 1028,2 hPa 0,0 l/m 0 min 0 min 0 W/m 12,6 km/h (3 Bft)
04.01.2015 04:18 1,5 C 0,0 C 98 % 1028,2 hPa 0,0 l/m 0 min 0 min 0 W/m 10,5 km/h (2 Bft)
04.01.2015 04:20 1,4 C 0,0 C 98 % 1028,2 hPa 0,0 l/m 0 min 0 min 0 W/m 8,4 km/h (2 Bft)
04.01.2015 04:22 1,4 C 0,0 C 98 % 1028,2 hPa 0,0 l/m 0 min 0 min 0 W/m 10,5 km/h (2 Bft)
04.01.2015 04:24 1,4 C -0,6 C 98 % 1028,2 hPa 0,0 l/m 0 min 0 min 0 W/m 8,4 km/h (2 Bft)
04.01.2015 04:26 1,4 C -0,6 C 98 % 1028,2 hPa 0,0 l/m 0 min 0 min 0 W/m 10,5 km/h (2 Bft)
04.01.2015 04:28 1,4 C -0,6 C 98 % 1028,2 hPa 0,0 l/m 0 min 0 min 0 W/m 8,4 km/h (2 Bft)
04.01.2015 04:30 1,4 C -0,6 C 98 % 1028,2 hPa 0,0 l/m 0 min 0 min 0 W/m 12,6 km/h (3 Bft)
04.01.2015 04:32 1,4 C 0,0 C 98 % 1028,3 hPa 0,0 l/m 0 min 0 min 0 W/m 8,4 km/h (2 Bft)
04.01.2015 04:34 1,3 C -0,6 C 98 % 1028,3 hPa 0,0 l/m 0 min 0 min 0 W/m 6,3 km/h (2 Bft)
04.01.2015 04:36 1,3 C -0,6 C 98 % 1028,3 hPa 0,0 l/m 0 min 0 min 0 W/m 6,3 km/h (2 Bft)
04.01.2015 04:38 1,3 C -0,6 C 98 % 1028,4 hPa 0,0 l/m 0 min 0 min 0 W/m 8,4 km/h (2 Bft)
04.01.2015 04:40 1,3 C -0,6 C 98 % 1028,4 hPa 0,0 l/m 0 min 0 min 0 W/m 6,3 km/h (2 Bft)
04.01.2015 04:42 1,3 C -0,6 C 98 % 1028,4 hPa 0,0 l/m 0 min 0 min 0 W/m 8,4 km/h (2 Bft)
04.01.2015 04:44 1,3 C -0,6 C 97 % 1028,5 hPa 0,0 l/m 0 min 0 min 0 W/m 6,3 km/h (2 Bft)
04.01.2015 04:46 1,3 C -0,6 C 97 % 1028,5 hPa 0,0 l/m 0 min 0 min 0 W/m 10,5 km/h (2 Bft)
04.01.2015 04:48 1,3 C -0,6 C 97 % 1028,5 hPa 0,0 l/m 0 min 0 min 0 W/m 6,3 km/h (2 Bft)
04.01.2015 04:50 1,2 C -0,6 C 97 % 1028,5 hPa 0,0 l/m 0 min 0 min 0 W/m 8,4 km/h (2 Bft)
04.01.2015 04:52 1,2 C -0,6 C 97 % 1028,6 hPa 0,0 l/m 0 min 0 min 0 W/m 8,4 km/h (2 Bft)
04.01.2015 04:54 1,2 C -0,6 C 97 % 1028,6 hPa 0,0 l/m 0 min 0 min 0 W/m 8,4 km/h (2 Bft)
04.01.2015 04:56 1,2 C -0,6 C 97 % 1028,7 hPa 0,0 l/m 0 min 0 min 0 W/m 6,3 km/h (2 Bft)
04.01.2015 04:58 1,2 C -0,6 C 97 % 1028,7 hPa 0,0 l/m 0 min 0 min 0 W/m 6,3 km/h (2 Bft)
04.01.2015 05:00 1,2 C -0,6 C 97 % 1028,7 hPa 0,0 l/m 0 min 0 min 0 W/m 6,3 km/h (2 Bft)
04.01.2015 05:02 1,1 C -0,6 C 98 % 1028,7 hPa 0,0 l/m 0 min 0 min 0 W/m 6,3 km/h (2 Bft)
04.01.2015 05:04 1,1 C -0,6 C 98 % 1028,8 hPa 0,0 l/m 0 min 0 min 0 W/m 6,3 km/h (2 Bft)
04.01.2015 05:06 1,1 C -0,6 C 98 % 1028,7 hPa 0,0 l/m 0 min 0 min 0 W/m 6,3 km/h (2 Bft)
04.01.2015 05:08 1,1 C -1,1 C 98 % 1028,8 hPa 0,0 l/m 0 min 0 min 0 W/m 8,4 km/h (2 Bft)
04.01.2015 05:10 1,1 C -1,1 C 98 % 1028,8 hPa 0,0 l/m 0 min 0 min 0 W/m 8,4 km/h (2 Bft)
04.01.2015 05:12 1,1 C -1,1 C 98 % 1028,8 hPa 0,0 l/m 0 min 0 min 0 W/m 6,3 km/h (2 Bft)
04.01.2015 05:14 1,0 C -1,1 C 98 % 1028,8 hPa 0,0 l/m 0 min 0 min 0 W/m 8,4 km/h (2 Bft)
04.01.2015 05:16 1,0 C -1,1 C 98 % 1028,7 hPa 0,0 l/m 0 min 0 min 0 W/m 6,3 km/h (2 Bft)
04.01.2015 05:18 1,0 C -1,1 C 97 % 1028,8 hPa 0,0 l/m 0 min 0 min 0 W/m 8,4 km/h (2 Bft)
04.01.2015 05:20 0,9 C -1,1 C 97 % 1028,8 hPa 0,0 l/m 0 min 0 min 0 W/m 8,4 km/h (2 Bft)
04.01.2015 05:22 0,9 C -1,1 C 97 % 1028,8 hPa 0,0 l/m 0 min 0 min 0 W/m 8,4 km/h (2 Bft)
04.01.2015 05:24 0,9 C -1,1 C 97 % 1028,8 hPa 0,0 l/m 0 min 0 min 0 W/m 8,4 km/h (2 Bft)
04.01.2015 05:26 0,9 C -1,1 C 97 % 1028,8 hPa 0,0 l/m 0 min 0 min 0 W/m 10,5 km/h (2 Bft)
04.01.2015 05:28 0,9 C -1,1 C 97 % 1028,8 hPa 0,0 l/m 0 min 0 min 0 W/m 8,4 km/h (2 Bft)
04.01.2015 05:30 0,8 C -1,1 C 98 % 1028,8 hPa 0,0 l/m 0 min 0 min 0 W/m 8,4 km/h (2 Bft)
04.01.2015 05:32 0,8 C -1,1 C 98 % 1028,8 hPa 0,0 l/m 0 min 0 min 0 W/m 6,3 km/h (2 Bft)
04.01.2015 05:34 0,8 C -1,1 C 98 % 1028,8 hPa 0,0 l/m 0 min 0 min 0 W/m 12,6 km/h (3 Bft)
04.01.2015 05:36 0,8 C -1,1 C 98 % 1028,9 hPa 0,0 l/m 0 min 0 min 0 W/m 8,4 km/h (2 Bft)
04.01.2015 05:38 0,8 C -0,6 C 98 % 1028,9 hPa 0,0 l/m 0 min 0 min 0 W/m 8,4 km/h (2 Bft)
04.01.2015 05:40 0,8 C -0,6 C 98 % 1028,8 hPa 0,0 l/m 0 min 0 min 0 W/m 10,5 km/h (2 Bft)
04.01.2015 05:42 0,8 C -0,6 C 98 % 1028,9 hPa 0,0 l/m 0 min 0 min 0 W/m 8,4 km/h (2 Bft)
04.01.2015 05:44 0,7 C -1,1 C 98 % 1029,0 hPa 0,0 l/m 0 min 0 min 0 W/m 6,3 km/h (2 Bft)
04.01.2015 05:46 0,7 C -0,6 C 98 % 1029,0 hPa 0,0 l/m 0 min 0 min 0 W/m 14,6 km/h (3 Bft)
04.01.2015 05:48 0,7 C -0,6 C 98 % 1029,0 hPa 0,0 l/m 0 min 0 min 0 W/m 14,6 km/h (3 Bft)
04.01.2015 05:50 0,8 C -0,6 C 98 % 1029,0 hPa 0,0 l/m 0 min 0 min 0 W/m 12,6 km/h (3 Bft)
04.01.2015 05:52 0,8 C -0,6 C 98 % 1029,0 hPa 0,0 l/m 0 min 0 min 0 W/m 6,3 km/h (2 Bft)
04.01.2015 05:54 0,8 C -0,6 C 98 % 1029,0 hPa 0,0 l/m 0 min 0 min 0 W/m 14,6 km/h (3 Bft)
04.01.2015 05:56 0,8 C -0,6 C 98 % 1029,0 hPa 0,0 l/m 0 min 0 min 0 W/m 12,6 km/h (3 Bft)
04.01.2015 05:58 0,8 C -0,6 C 98 % 1029,1 hPa 0,0 l/m 0 min 0 min 0 W/m 12,6 km/h (3 Bft)
04.01.2015 06:00 0,8 C -0,6 C 98 % 1029,1 hPa 0,0 l/m 0 min 0 min 0 W/m 14,6 km/h (3 Bft)
04.01.2015 06:02 0,9 C -0,6 C 97 % 1029,1 hPa 0,0 l/m 0 min 0 min 0 W/m 12,6 km/h (3 Bft)
04.01.2015 06:06 0,9 C -0,6 C 97 % 1029,2 hPa 0,0 l/m 0 min 0 min 0 W/m 10,5 km/h (2 Bft)
04.01.2015 06:08 0,9 C -0,6 C 97 % 1029,2 hPa 0,0 l/m 0 min 0 min 0 W/m 8,4 km/h (2 Bft)
04.01.2015 06:10 0,9 C -0,6 C 97 % 1029,2 hPa 0,0 l/m 0 min 0 min 0 W/m 10,5 km/h (2 Bft)
04.01.2015 06:12 0,9 C -0,6 C 97 % 1029,2 hPa 0,0 l/m 0 min 0 min 0 W/m 8,4 km/h (2 Bft)
04.01.2015 06:14 0,9 C -0,6 C 97 % 1029,2 hPa 0,0 l/m 0 min 0 min 0 W/m 12,6 km/h (3 Bft)
04.01.2015 06:16 0,9 C -0,6 C 97 % 1029,3 hPa 0,0 l/m 0 min 0 min 0 W/m 8,4 km/h (2 Bft)
04.01.2015 06:18 0,9 C -0,6 C 97 % 1029,3 hPa 0,0 l/m 0 min 0 min 0 W/m 4,2 km/h (1 Bft)
04.01.2015 06:20 0,9 C -0,6 C 97 % 1029,3 hPa 0,0 l/m 0 min 0 min 0 W/m 10,5 km/h (2 Bft)
04.01.2015 06:22 0,9 C -0,6 C 97 % 1029,3 hPa 0,0 l/m 0 min 0 min 0 W/m 12,6 km/h (3 Bft)
04.01.2015 06:24 0,8 C -1,1 C 98 % 1029,2 hPa 0,0 l/m 0 min 0 min 0 W/m 10,5 km/h (2 Bft)
04.01.2015 06:26 0,8 C -1,1 C 98 % 1029,3 hPa 0,0 l/m 0 min 0 min 0 W/m 8,4 km/h (2 Bft)
04.01.2015 06:28 0,8 C -1,1 C 98 % 1029,3 hPa 0,0 l/m 0 min 0 min 0 W/m 8,4 km/h (2 Bft)
04.01.2015 06:30 0,8 C -1,1 C 98 % 1029,4 hPa 0,0 l/m 0 min 0 min 0 W/m 8,4 km/h (2 Bft)
04.01.2015 06:32 0,8 C -1,1 C 98 % 1029,5 hPa 0,0 l/m 0 min 0 min 0 W/m 10,5 km/h (2 Bft)
04.01.2015 06:34 0,8 C -1,1 C 98 % 1029,6 hPa 0,0 l/m 0 min 0 min 0 W/m 12,6 km/h (3 Bft)
04.01.2015 06:36 0,7 C -1,1 C 98 % 1029,6 hPa 0,0 l/m 0 min 0 min 0 W/m 8,4 km/h (2 Bft)
04.01.2015 06:38 0,7 C -1,1 C 98 % 1029,7 hPa 0,0 l/m 0 min 0 min 0 W/m 10,5 km/h (2 Bft)
04.01.2015 06:40 0,7 C -1,1 C 98 % 1029,7 hPa 0,0 l/m 0 min 0 min 0 W/m 6,3 km/h (2 Bft)
04.01.2015 06:42 0,7 C -0,6 C 97 % 1029,8 hPa 0,0 l/m 0 min 0 min 0 W/m 10,5 km/h (2 Bft)
04.01.2015 06:44 0,7 C -1,1 C 97 % 1029,7 hPa 0,0 l/m 0 min 0 min 0 W/m 8,4 km/h (2 Bft)
04.01.2015 06:46 0,7 C -1,1 C 97 % 1029,7 hPa 0,0 l/m 0 min 0 min 0 W/m 10,5 km/h (2 Bft)
04.01.2015 06:48 0,7 C -0,6 C 97 % 1029,7 hPa 0,0 l/m 0 min 0 min 0 W/m 10,5 km/h (2 Bft)
04.01.2015 06:50 0,7 C -0,6 C 97 % 1029,7 hPa 0,0 l/m 0 min 0 min 0 W/m 10,5 km/h (2 Bft)
04.01.2015 06:52 0,7 C -0,6 C 97 % 1029,7 hPa 0,0 l/m 0 min 0 min 0 W/m 10,5 km/h (2 Bft)
04.01.2015 06:54 0,7 C -0,6 C 97 % 1029,7 hPa 0,0 l/m 0 min 0 min 0 W/m 10,5 km/h (2 Bft)
04.01.2015 06:56 0,6 C -0,6 C 97 % 1029,7 hPa 0,0 l/m 0 min 0 min 0 W/m 10,5 km/h (2 Bft)
04.01.2015 06:58 0,6 C -1,1 C 97 % 1029,7 hPa 0,0 l/m 0 min 0 min 0 W/m 8,4 km/h (2 Bft)
04.01.2015 07:00 0,6 C -1,1 C 97 % 1029,8 hPa 0,0 l/m 0 min 0 min 0 W/m 6,3 km/h (2 Bft)
04.01.2015 07:02 0,6 C -1,1 C 97 % 1029,8 hPa 0,0 l/m 0 min 0 min 0 W/m 8,4 km/h (2 Bft)
04.01.2015 07:04 0,6 C -1,1 C 97 % 1029,9 hPa 0,0 l/m 0 min 0 min 0 W/m 12,6 km/h (3 Bft)
04.01.2015 07:06 0,6 C -0,6 C 97 % 1029,9 hPa 0,0 l/m 0 min 0 min 0 W/m 12,6 km/h (3 Bft)
04.01.2015 07:08 0,6 C -0,6 C 97 % 1029,9 hPa 0,0 l/m 0 min 0 min 0 W/m 16,7 km/h (3 Bft)
04.01.2015 07:10 0,6 C -0,6 C 97 % 1029,9 hPa 0,0 l/m 0 min 0 min 0 W/m 10,5 km/h (2 Bft)
04.01.2015 07:12 0,6 C -0,6 C 97 % 1029,9 hPa 0,0 l/m 0 min 0 min 0 W/m 10,5 km/h (2 Bft)
04.01.2015 07:14 0,6 C -1,1 C 97 % 1029,9 hPa 0,0 l/m 0 min 0 min 0 W/m 8,4 km/h (2 Bft)
04.01.2015 07:16 0,6 C -0,6 C 97 % 1030,0 hPa 0,0 l/m 0 min 0 min 0 W/m 12,6 km/h (3 Bft)
04.01.2015 07:18 0,6 C -0,6 C 97 % 1030,0 hPa 0,0 l/m 0 min 0 min 0 W/m 12,6 km/h (3 Bft)
04.01.2015 07:20 0,6 C -0,6 C 97 % 1030,0 hPa 0,0 l/m 0 min 0 min 0 W/m 10,5 km/h (2 Bft)
04.01.2015 07:22 0,7 C -0,6 C 97 % 1030,0 hPa 0,0 l/m 0 min 0 min 0 W/m 18,8 km/h (3 Bft)
04.01.2015 07:24 0,7 C -0,6 C 97 % 1030,1 hPa 0,0 l/m 0 min 0 min 0 W/m 12,6 km/h (3 Bft)
04.01.2015 07:26 0,7 C -0,6 C 98 % 1030,0 hPa 0,0 l/m 0 min 0 min 0 W/m 14,6 km/h (3 Bft)
04.01.2015 07:28 0,7 C -0,6 C 98 % 1030,0 hPa 0,0 l/m 0 min 0 min 0 W/m 16,7 km/h (3 Bft)
04.01.2015 07:30 0,8 C -0,6 C 98 % 1030,0 hPa 0,0 l/m 0 min 0 min 0 W/m 16,7 km/h (3 Bft)
04.01.2015 07:32 0,8 C -0,6 C 98 % 1030,1 hPa 0,0 l/m 0 min 0 min 0 W/m 16,7 km/h (3 Bft)
04.01.2015 07:34 0,8 C -0,6 C 98 % 1030,1 hPa 0,0 l/m 0 min 0 min 0 W/m 10,5 km/h (2 Bft)
04.01.2015 07:36 0,8 C -0,6 C 98 % 1030,1 hPa 0,0 l/m 0 min 0 min 0 W/m 14,6 km/h (3 Bft)
04.01.2015 07:38 0,8 C -0,6 C 98 % 1030,1 hPa 0,0 l/m 0 min 0 min 0 W/m 16,7 km/h (3 Bft)
04.01.2015 07:40 0,8 C -0,6 C 98 % 1030,2 hPa 0,0 l/m 0 min 0 min 0 W/m 10,5 km/h (2 Bft)
04.01.2015 07:42 0,9 C -0,6 C 98 % 1030,2 hPa 0,0 l/m 0 min 0 min 0 W/m 10,5 km/h (2 Bft)
04.01.2015 07:44 0,9 C -0,6 C 98 % 1030,1 hPa 0,0 l/m 0 min 0 min 0 W/m 12,6 km/h (3 Bft)
04.01.2015 07:46 0,9 C -0,6 C 98 % 1030,1 hPa 0,0 l/m 0 min 0 min 0 W/m 10,5 km/h (2 Bft)
04.01.2015 07:48 0,9 C -0,6 C 98 % 1030,1 hPa 0,0 l/m 0 min 0 min 0 W/m 14,6 km/h (3 Bft)
04.01.2015 07:50 0,9 C -0,6 C 98 % 1030,1 hPa 0,0 l/m 0 min 0 min 0 W/m 14,6 km/h (3 Bft)
04.01.2015 07:52 0,9 C -0,6 C 98 % 1030,1 hPa 0,0 l/m 0 min 0 min 0 W/m 12,6 km/h (3 Bft)
04.01.2015 07:54 0,9 C -0,6 C 98 % 1030,2 hPa 0,0 l/m 0 min 0 min 0 W/m 12,6 km/h (3 Bft)
04.01.2015 07:56 0,9 C -0,6 C 98 % 1030,2 hPa 0,0 l/m 0 min 0 min 0 W/m 8,4 km/h (2 Bft)
04.01.2015 07:58 0,9 C -0,6 C 98 % 1030,3 hPa 0,0 l/m 0 min 0 min 0 W/m 6,3 km/h (2 Bft)
04.01.2015 08:00 0,9 C -0,6 C 98 % 1030,2 hPa 0,0 l/m 0 min 0 min 0 W/m 8,4 km/h (2 Bft)
04.01.2015 08:02 0,9 C -0,6 C 98 % 1030,2 hPa 0,0 l/m 0 min 0 min 0 W/m 14,6 km/h (3 Bft)
04.01.2015 08:04 0,8 C -0,6 C 98 % 1030,1 hPa 0,0 l/m 0 min 0 min 0 W/m 10,5 km/h (2 Bft)
04.01.2015 08:06 0,8 C -0,6 C 98 % 1030,2 hPa 0,0 l/m 0 min 0 min 0 W/m 12,6 km/h (3 Bft)
04.01.2015 08:08 0,8 C -0,6 C 98 % 1030,2 hPa 0,0 l/m 0 min 0 min 0 W/m 8,4 km/h (2 Bft)
04.01.2015 08:10 0,8 C -0,6 C 98 % 1030,4 hPa 0,0 l/m 0 min 0 min 0 W/m 8,4 km/h (2 Bft)
04.01.2015 08:12 0,8 C -0,6 C 98 % 1030,4 hPa 0,0 l/m 0 min 0 min 0 W/m 8,4 km/h (2 Bft)
04.01.2015 08:14 0,8 C -0,6 C 98 % 1030,4 hPa 0,0 l/m 0 min 0 min 0 W/m 10,5 km/h (2 Bft)
04.01.2015 08:16 0,8 C -0,6 C 98 % 1030,4 hPa 0,0 l/m 0 min 0 min 0 W/m 8,4 km/h (2 Bft)
04.01.2015 08:18 0,8 C -1,1 C 98 % 1030,4 hPa 0,0 l/m 0 min 0 min 0 W/m 8,4 km/h (2 Bft)
04.01.2015 08:20 0,8 C -1,1 C 98 % 1030,4 hPa 0,0 l/m 0 min 0 min 0 W/m 10,5 km/h (2 Bft)
04.01.2015 08:22 0,7 C -1,1 C 98 % 1030,4 hPa 0,0 l/m 0 min 0 min 0 W/m 10,5 km/h (2 Bft)
04.01.2015 08:24 0,7 C -1,1 C 98 % 1030,4 hPa 0,0 l/m 0 min 0 min 0 W/m 8,4 km/h (2 Bft)
04.01.2015 08:26 0,7 C -1,1 C 98 % 1030,5 hPa 0,0 l/m 0 min 0 min 0 W/m 8,4 km/h (2 Bft)
04.01.2015 08:28 0,7 C -1,1 C 97 % 1030,5 hPa 0,0 l/m 0 min 0 min 0 W/m 6,3 km/h (2 Bft)
04.01.2015 08:30 0,7 C -1,1 C 97 % 1030,6 hPa 0,0 l/m 0 min 0 min 5 W/m 6,3 km/h (2 Bft)
04.01.2015 08:32 0,6 C -1,1 C 97 % 1030,6 hPa 0,0 l/m 0 min 0 min 5 W/m 8,4 km/h (2 Bft)
04.01.2015 08:34 0,6 C -1,7 C 97 % 1030,6 hPa 0,0 l/m 0 min 0 min 5 W/m 8,4 km/h (2 Bft)
04.01.2015 08:36 0,5 C -1,1 C 97 % 1030,6 hPa 0,0 l/m 0 min 0 min 5 W/m 12,6 km/h (3 Bft)
04.01.2015 08:38 0,5 C -1,1 C 97 % 1030,7 hPa 0,0 l/m 0 min 0 min 7 W/m 6,3 km/h (2 Bft)
04.01.2015 08:40 0,5 C -1,1 C 97 % 1030,7 hPa 0,0 l/m 0 min 0 min 7 W/m 10,5 km/h (2 Bft)
04.01.2015 08:42 0,5 C -1,1 C 97 % 1030,8 hPa 0,0 l/m 0 min 0 min 7 W/m 6,3 km/h (2 Bft)
04.01.2015 08:44 0,5 C -1,1 C 97 % 1030,8 hPa 0,0 l/m 0 min 0 min 9 W/m 8,4 km/h (2 Bft)
04.01.2015 08:46 0,5 C -1,1 C 98 % 1030,9 hPa 0,0 l/m 0 min 0 min 10 W/m 8,4 km/h (2 Bft)
04.01.2015 08:48 0,4 C -1,1 C 98 % 1030,9 hPa 0,0 l/m 0 min 0 min 11 W/m 8,4 km/h (2 Bft)
04.01.2015 08:50 0,4 C -1,1 C 98 % 1031,0 hPa 0,0 l/m 0 min 0 min 12 W/m 10,5 km/h (2 Bft)
04.01.2015 08:52 0,4 C -1,1 C 98 % 1031,0 hPa 0,0 l/m 2 min 0 min 12 W/m 8,4 km/h (2 Bft)
04.01.2015 08:54 0,4 C -1,1 C 98 % 1031,1 hPa 0,0 l/m 2 min 0 min 14 W/m 10,5 km/h (2 Bft)
04.01.2015 08:56 0,4 C -1,1 C 98 % 1031,2 hPa 0,0 l/m 2 min 0 min 15 W/m 12,6 km/h (3 Bft)
04.01.2015 08:58 0,3 C -1,1 C 98 % 1031,2 hPa 0,0 l/m 2 min 0 min 17 W/m 8,4 km/h (2 Bft)
04.01.2015 09:00 0,3 C -1,1 C 98 % 1031,3 hPa 0,0 l/m 2 min 0 min 19 W/m 12,6 km/h (3 Bft)
04.01.2015 09:02 0,4 C -1,1 C 98 % 1031,3 hPa 0,0 l/m 2 min 0 min 20 W/m 8,4 km/h (2 Bft)
04.01.2015 09:04 0,3 C -1,1 C 98 % 1031,3 hPa 0,0 l/m 2 min 0 min 22 W/m 16,7 km/h (3 Bft)
04.01.2015 09:06 0,3 C -0,6 C 98 % 1031,3 hPa 0,0 l/m 2 min 0 min 24 W/m 12,6 km/h (3 Bft)
04.01.2015 09:08 0,3 C -1,1 C 98 % 1031,3 hPa 0,0 l/m 2 min 0 min 26 W/m 14,6 km/h (3 Bft)
04.01.2015 09:10 0,4 C -1,1 C 98 % 1031,3 hPa 0,0 l/m 2 min 0 min 28 W/m 8,4 km/h (2 Bft)
04.01.2015 09:12 0,4 C -1,1 C 98 % 1031,4 hPa 0,0 l/m 2 min 0 min 30 W/m 8,4 km/h (2 Bft)
04.01.2015 09:14 0,4 C -0,6 C 98 % 1031,4 hPa 0,0 l/m 2 min 0 min 32 W/m 12,6 km/h (3 Bft)
04.01.2015 09:16 0,4 C -0,6 C 98 % 1031,5 hPa 0,0 l/m 2 min 0 min 36 W/m 12,6 km/h (3 Bft)
04.01.2015 09:18 0,4 C -0,6 C 98 % 1031,5 hPa 0,0 l/m 2 min 0 min 38 W/m 10,5 km/h (2 Bft)
04.01.2015 09:20 0,4 C -0,6 C 98 % 1031,6 hPa 0,0 l/m 2 min 0 min 41 W/m 14,6 km/h (3 Bft)
04.01.2015 09:22 0,4 C -0,6 C 98 % 1031,6 hPa 0,0 l/m 2 min 0 min 43 W/m 14,6 km/h (3 Bft)
04.01.2015 09:24 0,5 C -0,6 C 98 % 1031,7 hPa 0,0 l/m 2 min 0 min 45 W/m 12,6 km/h (3 Bft)
04.01.2015 09:26 0,5 C -0,6 C 97 % 1031,7 hPa 0,0 l/m 2 min 0 min 48 W/m 12,6 km/h (3 Bft)
04.01.2015 09:28 0,5 C -0,6 C 97 % 1031,7 hPa 0,0 l/m 2 min 0 min 52 W/m 10,5 km/h (2 Bft)
04.01.2015 09:30 0,5 C -0,6 C 97 % 1031,7 hPa 0,0 l/m 2 min 0 min 58 W/m 12,6 km/h (3 Bft)
04.01.2015 09:32 0,6 C -0,6 C 97 % 1031,7 hPa 0,0 l/m 2 min 0 min 62 W/m 10,5 km/h (2 Bft)
04.01.2015 09:34 0,6 C -0,6 C 97 % 1031,7 hPa 0,0 l/m 2 min 0 min 62 W/m 8,4 km/h (2 Bft)
04.01.2015 09:36 0,7 C -0,6 C 97 % 1031,7 hPa 0,0 l/m 2 min 0 min 62 W/m 12,6 km/h (3 Bft)
04.01.2015 09:38 0,7 C -0,6 C 98 % 1031,7 hPa 0,0 l/m 2 min 0 min 65 W/m 10,5 km/h (2 Bft)
04.01.2015 09:40 0,7 C -0,6 C 98 % 1031,8 hPa 0,0 l/m 2 min 0 min 69 W/m 10,5 km/h (2 Bft)
04.01.2015 09:42 0,8 C 0,0 C 98 % 1031,8 hPa 0,0 l/m 2 min 0 min 74 W/m 16,7 km/h (3 Bft)
04.01.2015 09:44 0,8 C 0,0 C 98 % 1031,8 hPa 0,0 l/m 0 min 0 min 55 W/m 8,4 km/h (2 Bft)
04.01.2015 09:46 0,8 C 0,0 C 98 % 1031,8 hPa 0,0 l/m 0 min 0 min 47 W/m 6,3 km/h (2 Bft)
04.01.2015 09:48 0,9 C 0,0 C 98 % 1031,9 hPa 0,0 l/m 2 min 0 min 67 W/m 8,4 km/h (2 Bft)
04.01.2015 09:50 0,9 C 0,0 C 98 % 1031,9 hPa 0,0 l/m 2 min 0 min 89 W/m 12,6 km/h (3 Bft)
04.01.2015 09:52 0,9 C 0,0 C 98 % 1031,9 hPa 0,0 l/m 2 min 0 min 90 W/m 14,6 km/h (3 Bft)
04.01.2015 09:54 0,9 C 0,0 C 98 % 1032,0 hPa 0,0 l/m 2 min 0 min 91 W/m 12,6 km/h (3 Bft)
04.01.2015 09:56 1,0 C 0,0 C 98 % 1032,0 hPa 0,0 l/m 2 min 0 min 93 W/m 12,6 km/h (3 Bft)
04.01.2015 09:58 1,1 C 0,0 C 98 % 1031,9 hPa 0,0 l/m 2 min 0 min 92 W/m 10,5 km/h (2 Bft)
04.01.2015 10:00 1,1 C 0,0 C 98 % 1032,0 hPa 0,0 l/m 2 min 0 min 95 W/m 14,6 km/h (3 Bft)
04.01.2015 10:02 1,1 C 0,0 C 98 % 1032,1 hPa 0,0 l/m 2 min 0 min 98 W/m 12,6 km/h (3 Bft)
04.01.2015 10:04 1,1 C 0,0 C 98 % 1032,1 hPa 0,0 l/m 2 min 0 min 100 W/m 10,5 km/h (2 Bft)
04.01.2015 10:06 1,2 C 0,0 C 98 % 1032,2 hPa 0,0 l/m 2 min 0 min 103 W/m 12,6 km/h (3 Bft)
04.01.2015 10:08 1,2 C 0,0 C 98 % 1032,2 hPa 0,0 l/m 2 min 0 min 106 W/m 14,6 km/h (3 Bft)
04.01.2015 10:10 1,2 C 0,0 C 98 % 1032,2 hPa 0,0 l/m 2 min 0 min 112 W/m 14,6 km/h (3 Bft)
04.01.2015 10:12 1,3 C 0,6 C 98 % 1032,2 hPa 0,0 l/m 2 min 0 min 114 W/m 14,6 km/h (3 Bft)
04.01.2015 10:14 1,3 C 0,6 C 98 % 1032,4 hPa 0,0 l/m 2 min 0 min 115 W/m 6,3 km/h (2 Bft)
04.01.2015 10:16 1,3 C 0,6 C 98 % 1032,4 hPa 0,0 l/m 2 min 0 min 119 W/m 12,6 km/h (3 Bft)
04.01.2015 10:18 1,4 C 0,6 C 98 % 1032,4 hPa 0,0 l/m 2 min 0 min 120 W/m 12,6 km/h (3 Bft)
04.01.2015 10:20 1,4 C 0,6 C 98 % 1032,4 hPa 0,0 l/m 2 min 0 min 123 W/m 12,6 km/h (3 Bft)
04.01.2015 10:22 1,4 C 0,6 C 98 % 1032,5 hPa 0,0 l/m 2 min 0 min 127 W/m 12,6 km/h (3 Bft)
04.01.2015 10:24 1,5 C 0,6 C 98 % 1032,5 hPa 0,0 l/m 2 min 0 min 131 W/m 10,5 km/h (2 Bft)
04.01.2015 10:26 1,6 C 0,6 C 98 % 1032,6 hPa 0,0 l/m 2 min 0 min 134 W/m 10,5 km/h (2 Bft)
04.01.2015 10:28 1,6 C 0,6 C 98 % 1032,5 hPa 0,0 l/m 2 min 0 min 136 W/m 12,6 km/h (3 Bft)
04.01.2015 10:30 1,6 C 0,6 C 98 % 1032,6 hPa 0,0 l/m 2 min 0 min 141 W/m 10,5 km/h (2 Bft)
04.01.2015 10:32 1,7 C 0,6 C 98 % 1032,6 hPa 0,0 l/m 2 min 0 min 143 W/m 12,6 km/h (3 Bft)
04.01.2015 10:34 1,7 C 0,6 C 98 % 1032,6 hPa 0,0 l/m 2 min 0 min 146 W/m 12,6 km/h (3 Bft)
04.01.2015 10:36 1,8 C 1,1 C 98 % 1032,6 hPa 0,0 l/m 2 min 0 min 149 W/m 16,7 km/h (3 Bft)
04.01.2015 10:38 1,8 C 1,1 C 98 % 1032,7 hPa 0,0 l/m 2 min 0 min 153 W/m 10,5 km/h (2 Bft)
04.01.2015 10:40 1,8 C 1,1 C 98 % 1032,7 hPa 0,0 l/m 2 min 0 min 156 W/m 16,7 km/h (3 Bft)
04.01.2015 10:42 1,9 C 1,1 C 98 % 1032,7 hPa 0,0 l/m 2 min 0 min 157 W/m 10,5 km/h (2 Bft)
04.01.2015 10:44 1,9 C 1,1 C 98 % 1032,8 hPa 0,0 l/m 2 min 0 min 161 W/m 18,8 km/h (3 Bft)
04.01.2015 10:46 2,0 C 1,1 C 98 % 1032,8 hPa 0,0 l/m 2 min 0 min 162 W/m 14,6 km/h (3 Bft)
04.01.2015 10:48 2,0 C 1,1 C 98 % 1032,9 hPa 0,0 l/m 2 min 0 min 164 W/m 12,6 km/h (3 Bft)
04.01.2015 10:50 2,1 C 1,1 C 98 % 1033,0 hPa 0,0 l/m 2 min 0 min 166 W/m 23,0 km/h (4 Bft)
04.01.2015 10:52 2,1 C 1,1 C 98 % 1033,0 hPa 0,0 l/m 2 min 0 min 167 W/m 10,5 km/h (2 Bft)
04.01.2015 10:54 2,2 C 1,1 C 98 % 1033,1 hPa 0,0 l/m 2 min 0 min 169 W/m 8,4 km/h (2 Bft)
04.01.2015 10:56 2,2 C 1,1 C 98 % 1033,1 hPa 0,0 l/m 2 min 0 min 172 W/m 14,6 km/h (3 Bft)
04.01.2015 10:58 2,3 C 1,1 C 98 % 1033,1 hPa 0,0 l/m 2 min 0 min 176 W/m 14,6 km/h (3 Bft)
04.01.2015 11:00 2,3 C 1,1 C 98 % 1033,2 hPa 0,0 l/m 2 min 0 min 177 W/m 14,6 km/h (3 Bft)
04.01.2015 11:02 2,3 C 1,1 C 98 % 1033,1 hPa 0,0 l/m 2 min 0 min 179 W/m 14,6 km/h (3 Bft)
04.01.2015 11:04 2,4 C 1,1 C 98 % 1033,1 hPa 0,0 l/m 2 min 0 min 179 W/m 12,6 km/h (3 Bft)
04.01.2015 11:06 2,4 C 1,7 C 98 % 1033,1 hPa 0,0 l/m 2 min 0 min 182 W/m 20,9 km/h (4 Bft)
04.01.2015 11:08 2,5 C 1,7 C 98 % 1033,1 hPa 0,0 l/m 2 min 0 min 185 W/m 10,5 km/h (2 Bft)
04.01.2015 11:10 2,6 C 1,7 C 98 % 1033,1 hPa 0,0 l/m 2 min 0 min 186 W/m 12,6 km/h (3 Bft)
04.01.2015 11:12 2,6 C 1,7 C 98 % 1033,1 hPa 0,0 l/m 2 min 0 min 190 W/m 12,6 km/h (3 Bft)
04.01.2015 11:14 2,7 C 1,7 C 98 % 1033,1 hPa 0,0 l/m 2 min 0 min 194 W/m 14,6 km/h (3 Bft)
04.01.2015 11:16 2,7 C 1,7 C 98 % 1033,1 hPa 0,0 l/m 2 min 0 min 195 W/m 16,7 km/h (3 Bft)
04.01.2015 11:18 2,8 C 1,7 C 98 % 1033,0 hPa 0,0 l/m 2 min 0 min 196 W/m 10,5 km/h (2 Bft)
04.01.2015 11:20 2,9 C 1,7 C 98 % 1033,1 hPa 0,0 l/m 2 min 0 min 196 W/m 12,6 km/h (3 Bft)
04.01.2015 11:22 2,9 C 1,7 C 98 % 1033,1 hPa 0,0 l/m 2 min 0 min 197 W/m 14,6 km/h (3 Bft)
04.01.2015 11:24 3,0 C 1,7 C 98 % 1033,1 hPa 0,0 l/m 2 min 0 min 200 W/m 12,6 km/h (3 Bft)
04.01.2015 11:26 3,1 C 1,7 C 98 % 1033,1 hPa 0,0 l/m 2 min 0 min 204 W/m 14,6 km/h (3 Bft)
04.01.2015 11:28 3,1 C 1,7 C 98 % 1033,1 hPa 0,0 l/m 2 min 0 min 207 W/m 14,6 km/h (3 Bft)
04.01.2015 11:30 3,2 C 1,7 C 98 % 1033,1 hPa 0,0 l/m 2 min 0 min 214 W/m 10,5 km/h (2 Bft)
04.01.2015 11:32 3,2 C 1,7 C 98 % 1033,1 hPa 0,0 l/m 2 min 0 min 223 W/m 18,8 km/h (3 Bft)
04.01.2015 11:34 3,3 C 2,2 C 98 % 1033,2 hPa 0,0 l/m 2 min 0 min 235 W/m 18,8 km/h (3 Bft)
04.01.2015 11:36 3,3 C 2,2 C 98 % 1033,2 hPa 0,0 l/m 2 min 0 min 209 W/m 25,1 km/h (4 Bft)
04.01.2015 11:38 3,4 C 2,2 C 98 % 1033,1 hPa 0,0 l/m 2 min 0 min 171 W/m 16,7 km/h (3 Bft)
04.01.2015 11:40 3,4 C 2,2 C 98 % 1033,2 hPa 0,0 l/m 2 min 0 min 172 W/m 14,6 km/h (3 Bft)
04.01.2015 11:42 3,4 C 2,2 C 98 % 1033,2 hPa 0,0 l/m 2 min 0 min 191 W/m 16,7 km/h (3 Bft)
04.01.2015 11:44 3,5 C 2,2 C 98 % 1033,2 hPa 0,0 l/m 2 min 0 min 222 W/m 14,6 km/h (3 Bft)
04.01.2015 11:46 3,6 C 2,2 C 98 % 1033,2 hPa 0,0 l/m 2 min 0 min 216 W/m 20,9 km/h (4 Bft)
04.01.2015 11:48 3,6 C 2,2 C 98 % 1033,3 hPa 0,0 l/m 2 min 0 min 228 W/m 10,5 km/h (2 Bft)
04.01.2015 11:50 3,7 C 2,2 C 98 % 1033,3 hPa 0,0 l/m 2 min 0 min 232 W/m 18,8 km/h (3 Bft)
04.01.2015 11:52 3,7 C 2,8 C 98 % 1033,3 hPa 0,0 l/m 2 min 0 min 240 W/m 20,9 km/h (4 Bft)
04.01.2015 11:54 3,8 C 2,8 C 98 % 1033,3 hPa 0,0 l/m 2 min 0 min 207 W/m 12,6 km/h (3 Bft)
04.01.2015 11:56 3,8 C 2,8 C 98 % 1033,3 hPa 0,0 l/m 2 min 0 min 220 W/m 14,6 km/h (3 Bft)
04.01.2015 11:58 3,9 C 2,8 C 97 % 1033,3 hPa 0,0 l/m 2 min 0 min 205 W/m 20,9 km/h (4 Bft)
04.01.2015 12:00 3,9 C 2,8 C 97 % 1033,4 hPa 0,0 l/m 2 min 0 min 260 W/m 25,1 km/h (4 Bft)
04.01.2015 12:02 4,0 C 2,8 C 97 % 1033,3 hPa 0,0 l/m 2 min 0 min 255 W/m 23,0 km/h (4 Bft)
04.01.2015 12:06 4,1 C 2,8 C 97 % 1033,3 hPa 0,0 l/m 2 min 0 min 169 W/m 14,6 km/h (3 Bft)
04.01.2015 12:08 4,2 C 2,8 C 97 % 1033,3 hPa 0,0 l/m 2 min 0 min 138 W/m 18,8 km/h (3 Bft)
04.01.2015 12:10 4,2 C 2,8 C 97 % 1033,3 hPa 0,0 l/m 2 min 0 min 155 W/m 12,6 km/h (3 Bft)
04.01.2015 12:12 4,2 C 2,8 C 97 % 1033,3 hPa 0,0 l/m 2 min 0 min 170 W/m 8,4 km/h (2 Bft)
04.01.2015 12:14 4,2 C 2,8 C 97 % 1033,3 hPa 0,0 l/m 2 min 0 min 191 W/m 14,6 km/h (3 Bft)
04.01.2015 12:16 4,3 C 2,8 C 96 % 1033,4 hPa 0,0 l/m 2 min 0 min 175 W/m 18,8 km/h (3 Bft)
04.01.2015 12:18 4,3 C 2,8 C 96 % 1033,3 hPa 0,0 l/m 2 min 0 min 224 W/m 18,8 km/h (3 Bft)
04.01.2015 12:20 4,3 C 2,8 C 96 % 1033,3 hPa 0,0 l/m 2 min 0 min 245 W/m 18,8 km/h (3 Bft)
04.01.2015 12:22 4,4 C 2,8 C 96 % 1033,3 hPa 0,0 l/m 2 min 0 min 244 W/m 20,9 km/h (4 Bft)
04.01.2015 12:24 4,5 C 3,3 C 96 % 1033,2 hPa 0,0 l/m 2 min 0 min 240 W/m 12,6 km/h (3 Bft)
04.01.2015 12:26 4,6 C 3,3 C 96 % 1033,2 hPa 0,0 l/m 2 min 0 min 238 W/m 16,7 km/h (3 Bft)
04.01.2015 12:28 4,6 C 3,3 C 95 % 1033,2 hPa 0,0 l/m 2 min 0 min 236 W/m 14,6 km/h (3 Bft)
04.01.2015 12:30 4,7 C 3,3 C 95 % 1033,2 hPa 0,0 l/m 2 min 0 min 239 W/m 18,8 km/h (3 Bft)
04.01.2015 12:32 4,8 C 3,3 C 95 % 1033,2 hPa 0,0 l/m 2 min 0 min 239 W/m 14,6 km/h (3 Bft)
04.01.2015 12:34 4,8 C 3,3 C 95 % 1033,2 hPa 0,0 l/m 2 min 0 min 242 W/m 16,7 km/h (3 Bft)
04.01.2015 12:36 4,9 C 3,3 C 95 % 1033,3 hPa 0,0 l/m 2 min 0 min 244 W/m 16,7 km/h (3 Bft)
04.01.2015 12:38 5,0 C 3,3 C 95 % 1033,3 hPa 0,0 l/m 2 min 0 min 239 W/m 18,8 km/h (3 Bft)
04.01.2015 12:40 5,1 C 3,3 C 94 % 1033,3 hPa 0,0 l/m 2 min 0 min 224 W/m 16,7 km/h (3 Bft)
04.01.2015 12:42 5,1 C 3,3 C 94 % 1033,4 hPa 0,0 l/m 2 min 0 min 232 W/m 20,9 km/h (4 Bft)
04.01.2015 12:44 5,2 C 3,3 C 94 % 1033,3 hPa 0,0 l/m 2 min 0 min 234 W/m 16,7 km/h (3 Bft)
04.01.2015 12:46 5,3 C 3,9 C 93 % 1033,3 hPa 0,0 l/m 2 min 0 min 226 W/m 10,5 km/h (2 Bft)
04.01.2015 12:48 5,3 C 3,9 C 93 % 1033,3 hPa 0,0 l/m 2 min 0 min 246 W/m 27,2 km/h (4 Bft)
04.01.2015 12:50 5,4 C 3,9 C 93 % 1033,4 hPa 0,0 l/m 2 min 0 min 265 W/m 27,2 km/h (4 Bft)
04.01.2015 12:52 5,4 C 3,9 C 93 % 1033,4 hPa 0,0 l/m 2 min 0 min 256 W/m 16,7 km/h (3 Bft)
04.01.2015 12:54 5,5 C 4,4 C 92 % 1033,4 hPa 0,0 l/m 2 min 0 min 248 W/m 20,9 km/h (4 Bft)
04.01.2015 12:56 5,6 C 3,9 C 92 % 1033,5 hPa 0,0 l/m 2 min 0 min 234 W/m 14,6 km/h (3 Bft)
04.01.2015 12:58 5,7 C 4,4 C 92 % 1033,5 hPa 0,0 l/m 2 min 0 min 232 W/m 16,7 km/h (3 Bft)
04.01.2015 13:00 5,7 C 4,4 C 91 % 1033,5 hPa 0,0 l/m 2 min 0 min 222 W/m 18,8 km/h (3 Bft)
04.01.2015 13:02 5,8 C 3,9 C 91 % 1033,5 hPa 0,0 l/m 2 min 0 min 224 W/m 18,8 km/h (3 Bft)
04.01.2015 13:04 5,8 C 3,9 C 91 % 1033,5 hPa 0,0 l/m 2 min 0 min 218 W/m 20,9 km/h (4 Bft)
04.01.2015 13:06 5,9 C 3,9 C 90 % 1033,6 hPa 0,0 l/m 2 min 0 min 224 W/m 23,0 km/h (4 Bft)
04.01.2015 13:08 5,9 C 3,9 C 90 % 1033,6 hPa 0,0 l/m 2 min 0 min 222 W/m 23,0 km/h (4 Bft)
04.01.2015 13:10 6,0 C 3,9 C 90 % 1033,6 hPa 0,0 l/m 2 min 0 min 223 W/m 20,9 km/h (4 Bft)
04.01.2015 13:12 6,0 C 3,9 C 89 % 1033,6 hPa 0,0 l/m 2 min 0 min 221 W/m 18,8 km/h (3 Bft)
04.01.2015 13:14 6,1 C 4,4 C 89 % 1033,5 hPa 0,0 l/m 2 min 0 min 223 W/m 25,1 km/h (4 Bft)
04.01.2015 13:16 6,1 C 4,4 C 89 % 1033,5 hPa 0,0 l/m 2 min 0 min 223 W/m 20,9 km/h (4 Bft)
04.01.2015 13:18 6,1 C 4,4 C 88 % 1033,4 hPa 0,0 l/m 2 min 0 min 220 W/m 29,3 km/h (5 Bft)
04.01.2015 13:20 6,2 C 4,4 C 88 % 1033,4 hPa 0,0 l/m 2 min 0 min 219 W/m 25,1 km/h (4 Bft)
04.01.2015 13:22 6,2 C 4,4 C 88 % 1033,5 hPa 0,0 l/m 2 min 0 min 218 W/m 27,2 km/h (4 Bft)
04.01.2015 13:24 6,2 C 4,4 C 87 % 1033,5 hPa 0,0 l/m 2 min 0 min 219 W/m 25,1 km/h (4 Bft)
04.01.2015 13:26 6,2 C 4,4 C 87 % 1033,4 hPa 0,0 l/m 2 min 0 min 211 W/m 18,8 km/h (3 Bft)
04.01.2015 13:28 6,2 C 3,9 C 87 % 1033,4 hPa 0,0 l/m 2 min 0 min 207 W/m 16,7 km/h (3 Bft)
04.01.2015 13:30 6,3 C 4,4 C 87 % 1033,5 hPa 0,0 l/m 2 min 0 min 206 W/m 20,9 km/h (4 Bft)
04.01.2015 13:32 6,3 C 4,4 C 87 % 1033,5 hPa 0,0 l/m 2 min 0 min 203 W/m 16,7 km/h (3 Bft)
04.01.2015 13:34 6,3 C 4,4 C 87 % 1033,5 hPa 0,0 l/m 2 min 0 min 201 W/m 23,0 km/h (4 Bft)
04.01.2015 13:36 6,4 C 4,4 C 87 % 1033,5 hPa 0,0 l/m 2 min 0 min 199 W/m 20,9 km/h (4 Bft)
04.01.2015 13:38 6,4 C 4,4 C 86 % 1033,5 hPa 0,0 l/m 2 min 0 min 197 W/m 14,6 km/h (3 Bft)
04.01.2015 13:40 6,4 C 4,4 C 86 % 1033,5 hPa 0,0 l/m 2 min 0 min 197 W/m 18,8 km/h (3 Bft)
04.01.2015 13:42 6,4 C 4,4 C 86 % 1033,5 hPa 0,0 l/m 2 min 0 min 196 W/m 23,0 km/h (4 Bft)
04.01.2015 13:44 6,4 C 4,4 C 86 % 1033,5 hPa 0,0 l/m 2 min 0 min 194 W/m 14,6 km/h (3 Bft)
04.01.2015 13:46 6,4 C 3,9 C 86 % 1033,4 hPa 0,0 l/m 2 min 0 min 192 W/m 12,6 km/h (3 Bft)
04.01.2015 13:48 6,4 C 4,4 C 86 % 1033,5 hPa 0,0 l/m 2 min 0 min 189 W/m 12,6 km/h (3 Bft)
04.01.2015 13:50 6,4 C 4,4 C 86 % 1033,5 hPa 0,0 l/m 2 min 0 min 188 W/m 14,6 km/h (3 Bft)
04.01.2015 13:52 6,4 C 4,4 C 86 % 1033,5 hPa 0,0 l/m 2 min 0 min 187 W/m 20,9 km/h (4 Bft)
04.01.2015 13:54 6,4 C 4,4 C 86 % 1033,5 hPa 0,0 l/m 2 min 0 min 187 W/m 16,7 km/h (3 Bft)
04.01.2015 13:56 6,4 C 4,4 C 86 % 1033,5 hPa 0,0 l/m 2 min 0 min 173 W/m 18,8 km/h (3 Bft)
04.01.2015 13:58 6,5 C 4,4 C 86 % 1033,6 hPa 0,0 l/m 2 min 0 min 179 W/m 12,6 km/h (3 Bft)
04.01.2015 14:00 6,5 C 4,4 C 86 % 1033,5 hPa 0,0 l/m 2 min 0 min 178 W/m 18,8 km/h (3 Bft)
04.01.2015 14:02 6,5 C 4,4 C 86 % 1033,6 hPa 0,0 l/m 2 min 0 min 175 W/m 14,6 km/h (3 Bft)
04.01.2015 14:04 6,5 C 4,4 C 86 % 1033,6 hPa 0,0 l/m 2 min 0 min 171 W/m 16,7 km/h (3 Bft)
04.01.2015 14:06 6,6 C 4,4 C 86 % 1033,6 hPa 0,0 l/m 2 min 0 min 169 W/m 16,7 km/h (3 Bft)
04.01.2015 14:08 6,6 C 4,4 C 86 % 1033,6 hPa 0,0 l/m 2 min 0 min 166 W/m 10,5 km/h (2 Bft)
04.01.2015 14:10 6,5 C 4,4 C 86 % 1033,6 hPa 0,0 l/m 2 min 0 min 163 W/m 14,6 km/h (3 Bft)
04.01.2015 14:12 6,6 C 4,4 C 86 % 1033,7 hPa 0,0 l/m 2 min 0 min 161 W/m 16,7 km/h (3 Bft)
04.01.2015 14:14 6,6 C 4,4 C 86 % 1033,8 hPa 0,0 l/m 2 min 0 min 160 W/m 16,7 km/h (3 Bft)
04.01.2015 14:16 6,6 C 4,4 C 86 % 1033,7 hPa 0,0 l/m 2 min 0 min 156 W/m 8,4 km/h (2 Bft)
04.01.2015 14:18 6,6 C 4,4 C 86 % 1033,8 hPa 0,0 l/m 2 min 0 min 152 W/m 18,8 km/h (3 Bft)
04.01.2015 14:20 6,6 C 4,4 C 85 % 1033,8 hPa 0,0 l/m 2 min 0 min 149 W/m 14,6 km/h (3 Bft)
04.01.2015 14:22 6,6 C 4,4 C 85 % 1033,7 hPa 0,0 l/m 2 min 0 min 146 W/m 8,4 km/h (2 Bft)
04.01.2015 14:24 6,6 C 4,4 C 85 % 1033,8 hPa 0,0 l/m 2 min 0 min 143 W/m 8,4 km/h (2 Bft)
04.01.2015 14:26 6,6 C 4,4 C 85 % 1033,8 hPa 0,0 l/m 2 min 0 min 140 W/m 12,6 km/h (3 Bft)
04.01.2015 14:28 6,6 C 4,4 C 85 % 1033,8 hPa 0,0 l/m 2 min 0 min 139 W/m 23,0 km/h (4 Bft)
04.01.2015 14:30 6,6 C 4,4 C 85 % 1033,8 hPa 0,0 l/m 2 min 0 min 135 W/m 18,8 km/h (3 Bft)
04.01.2015 14:32 6,6 C 4,4 C 85 % 1033,8 hPa 0,0 l/m 2 min 0 min 133 W/m 20,9 km/h (4 Bft)
04.01.2015 14:34 6,6 C 4,4 C 85 % 1033,8 hPa 0,0 l/m 2 min 0 min 129 W/m 12,6 km/h (3 Bft)
04.01.2015 14:36 6,6 C 4,4 C 85 % 1033,8 hPa 0,0 l/m 2 min 0 min 127 W/m 12,6 km/h (3 Bft)
04.01.2015 14:38 6,6 C 4,4 C 85 % 1033,8 hPa 0,0 l/m 2 min 0 min 124 W/m 12,6 km/h (3 Bft)
04.01.2015 14:40 6,6 C 4,4 C 85 % 1033,9 hPa 0,0 l/m 2 min 0 min 121 W/m 10,5 km/h (2 Bft)
04.01.2015 14:42 6,6 C 4,4 C 85 % 1033,9 hPa 0,2 l/m 2 min 0 min 120 W/m 23,0 km/h (4 Bft)
04.01.2015 14:44 6,5 C 4,4 C 85 % 1033,9 hPa 0,0 l/m 2 min 0 min 119 W/m 14,6 km/h (3 Bft)
04.01.2015 14:46 6,5 C 4,4 C 85 % 1034,0 hPa 0,0 l/m 2 min 0 min 117 W/m 10,5 km/h (2 Bft)
04.01.2015 14:48 6,4 C 3,9 C 85 % 1033,9 hPa 0,0 l/m 2 min 0 min 114 W/m 14,6 km/h (3 Bft)
04.01.2015 14:50 6,4 C 4,4 C 85 % 1033,9 hPa 0,0 l/m 2 min 0 min 111 W/m 20,9 km/h (4 Bft)
04.01.2015 14:52 6,4 C 4,4 C 85 % 1033,9 hPa 0,0 l/m 2 min 0 min 108 W/m 10,5 km/h (2 Bft)
04.01.2015 14:54 6,4 C 3,9 C 85 % 1033,9 hPa 0,0 l/m 2 min 0 min 105 W/m 8,4 km/h (2 Bft)
04.01.2015 14:56 6,4 C 3,9 C 85 % 1033,9 hPa 0,0 l/m 2 min 0 min 101 W/m 18,8 km/h (3 Bft)
04.01.2015 14:58 6,3 C 4,4 C 85 % 1033,9 hPa 0,0 l/m 2 min 0 min 99 W/m 20,9 km/h (4 Bft)
04.01.2015 15:00 6,3 C 3,9 C 85 % 1033,8 hPa 0,0 l/m 2 min 0 min 99 W/m 23,0 km/h (4 Bft)
04.01.2015 15:02 6,2 C 4,4 C 85 % 1033,8 hPa 0,0 l/m 2 min 0 min 101 W/m 16,7 km/h (3 Bft)
04.01.2015 15:04 6,2 C 4,4 C 85 % 1033,8 hPa 0,0 l/m 2 min 0 min 98 W/m 20,9 km/h (4 Bft)
04.01.2015 15:06 6,2 C 4,4 C 85 % 1033,8 hPa 0,0 l/m 2 min 0 min 107 W/m 20,9 km/h (4 Bft)
04.01.2015 15:08 6,2 C 4,4 C 85 % 1033,8 hPa 0,0 l/m 2 min 0 min 113 W/m 18,8 km/h (3 Bft)
04.01.2015 15:10 6,2 C 4,4 C 85 % 1033,8 hPa 0,0 l/m 2 min 0 min 115 W/m 12,6 km/h (3 Bft)
04.01.2015 15:12 6,2 C 4,4 C 86 % 1033,9 hPa 0,0 l/m 2 min 0 min 117 W/m 20,9 km/h (4 Bft)
04.01.2015 15:14 6,2 C 4,4 C 86 % 1033,8 hPa 0,0 l/m 2 min 0 min 119 W/m 18,8 km/h (3 Bft)
04.01.2015 15:16 6,1 C 4,4 C 86 % 1033,9 hPa 0,0 l/m 2 min 0 min 106 W/m 20,9 km/h (4 Bft)
04.01.2015 15:18 6,1 C 4,4 C 86 % 1033,9 hPa 0,0 l/m 2 min 0 min 102 W/m 16,7 km/h (3 Bft)
04.01.2015 15:20 6,1 C 4,4 C 86 % 1033,9 hPa 0,0 l/m 2 min 0 min 96 W/m 14,6 km/h (3 Bft)
04.01.2015 15:22 6,1 C 4,4 C 86 % 1034,0 hPa 0,0 l/m 2 min 0 min 106 W/m 18,8 km/h (3 Bft)
04.01.2015 15:24 6,1 C 4,4 C 86 % 1034,0 hPa 0,0 l/m 2 min 0 min 102 W/m 14,6 km/h (3 Bft)
04.01.2015 15:26 6,1 C 4,4 C 86 % 1034,1 hPa 0,0 l/m 2 min 0 min 104 W/m 14,6 km/h (3 Bft)
04.01.2015 15:28 6,1 C 4,4 C 86 % 1034,0 hPa 0,0 l/m 2 min 0 min 88 W/m 23,0 km/h (4 Bft)
04.01.2015 15:30 6,1 C 4,4 C 86 % 1034,1 hPa 0,0 l/m 2 min 0 min 67 W/m 8,4 km/h (2 Bft)
04.01.2015 15:32 6,1 C 4,4 C 87 % 1034,1 hPa 0,0 l/m 0 min 0 min 55 W/m 12,6 km/h (3 Bft)
04.01.2015 15:34 6,1 C 3,9 C 87 % 1034,2 hPa 0,0 l/m 0 min 0 min 54 W/m 12,6 km/h (3 Bft)
04.01.2015 15:36 6,0 C 3,9 C 87 % 1034,2 hPa 0,0 l/m 0 min 0 min 54 W/m 16,7 km/h (3 Bft)
04.01.2015 15:38 6,0 C 3,9 C 87 % 1034,2 hPa 0,0 l/m 0 min 0 min 47 W/m 10,5 km/h (2 Bft)
04.01.2015 15:40 5,9 C 3,9 C 87 % 1034,2 hPa 0,0 l/m 0 min 0 min 43 W/m 16,7 km/h (3 Bft)
04.01.2015 15:42 5,9 C 3,9 C 87 % 1034,3 hPa 0,0 l/m 2 min 0 min 52 W/m 8,4 km/h (2 Bft)
04.01.2015 15:44 5,9 C 3,9 C 87 % 1034,3 hPa 0,0 l/m 2 min 0 min 50 W/m 12,6 km/h (3 Bft)
04.01.2015 15:46 5,9 C 3,3 C 87 % 1034,3 hPa 0,0 l/m 0 min 0 min 42 W/m 12,6 km/h (3 Bft)
04.01.2015 15:48 5,8 C 3,9 C 87 % 1034,3 hPa 0,0 l/m 0 min 0 min 43 W/m 12,6 km/h (3 Bft)
04.01.2015 15:50 5,8 C 3,9 C 87 % 1034,3 hPa 0,0 l/m 0 min 0 min 42 W/m 12,6 km/h (3 Bft)
04.01.2015 15:52 5,8 C 3,3 C 87 % 1034,4 hPa 0,0 l/m 0 min 0 min 41 W/m 10,5 km/h (2 Bft)
04.01.2015 15:54 5,7 C 3,3 C 87 % 1034,3 hPa 0,0 l/m 0 min 0 min 38 W/m 12,6 km/h (3 Bft)
04.01.2015 15:56 5,7 C 3,3 C 87 % 1034,3 hPa 0,0 l/m 0 min 0 min 36 W/m 8,4 km/h (2 Bft)
04.01.2015 15:58 5,6 C 3,3 C 87 % 1034,3 hPa 0,0 l/m 0 min 0 min 31 W/m 14,6 km/h (3 Bft)
04.01.2015 16:00 5,6 C 3,3 C 87 % 1034,3 hPa 0,0 l/m 0 min 0 min 28 W/m 12,6 km/h (3 Bft)
04.01.2015 16:02 5,5 C 3,3 C 87 % 1034,3 hPa 0,0 l/m 0 min 0 min 28 W/m 12,6 km/h (3 Bft)
04.01.2015 16:04 5,5 C 3,3 C 88 % 1034,2 hPa 0,0 l/m 0 min 0 min 26 W/m 10,5 km/h (2 Bft)
04.01.2015 16:06 5,4 C 2,8 C 88 % 1034,3 hPa 0,0 l/m 0 min 0 min 25 W/m 10,5 km/h (2 Bft)
04.01.2015 16:08 5,4 C 2,8 C 88 % 1034,3 hPa 0,0 l/m 0 min 0 min 24 W/m 6,3 km/h (2 Bft)
04.01.2015 16:10 5,3 C 2,8 C 88 % 1034,3 hPa 0,0 l/m 0 min 0 min 22 W/m 10,5 km/h (2 Bft)
04.01.2015 16:12 5,3 C 2,8 C 88 % 1034,3 hPa 0,0 l/m 0 min 0 min 21 W/m 8,4 km/h (2 Bft)
04.01.2015 16:14 5,2 C 2,8 C 88 % 1034,4 hPa 0,0 l/m 2 min 0 min 21 W/m 10,5 km/h (2 Bft)
04.01.2015 16:16 5,2 C 2,8 C 88 % 1034,4 hPa 0,0 l/m 2 min 0 min 20 W/m 6,3 km/h (2 Bft)
04.01.2015 16:18 5,2 C 2,8 C 88 % 1034,4 hPa 0,0 l/m 2 min 0 min 19 W/m 8,4 km/h (2 Bft)
04.01.2015 16:20 5,1 C 2,8 C 88 % 1034,5 hPa 0,0 l/m 2 min 0 min 18 W/m 6,3 km/h (2 Bft)
04.01.2015 16:22 5,1 C 2,2 C 88 % 1034,5 hPa 0,0 l/m 2 min 0 min 16 W/m 10,5 km/h (2 Bft)
04.01.2015 16:24 5,0 C 2,2 C 89 % 1034,6 hPa 0,0 l/m 2 min 0 min 16 W/m 6,3 km/h (2 Bft)
04.01.2015 16:26 5,0 C 2,2 C 89 % 1034,6 hPa 0,0 l/m 2 min 0 min 14 W/m 10,5 km/h (2 Bft)
04.01.2015 16:28 4,9 C 2,2 C 89 % 1034,6 hPa 0,0 l/m 0 min 0 min 13 W/m 6,3 km/h (2 Bft)
04.01.2015 16:30 4,9 C 2,2 C 89 % 1034,6 hPa 0,0 l/m 0 min 0 min 12 W/m 6,3 km/h (2 Bft)
04.01.2015 16:32 4,9 C 2,2 C 89 % 1034,6 hPa 0,0 l/m 0 min 0 min 11 W/m 6,3 km/h (2 Bft)
04.01.2015 16:34 4,8 C 2,2 C 89 % 1034,6 hPa 0,0 l/m 0 min 0 min 11 W/m 6,3 km/h (2 Bft)
04.01.2015 16:36 4,8 C 1,7 C 89 % 1034,7 hPa 0,0 l/m 0 min 0 min 9 W/m 10,5 km/h (2 Bft)
04.01.2015 16:38 4,8 C 1,7 C 89 % 1034,6 hPa 0,0 l/m 0 min 0 min 9 W/m 6,3 km/h (2 Bft)
04.01.2015 16:40 4,7 C 1,7 C 89 % 1034,7 hPa 0,0 l/m 0 min 0 min 7 W/m 6,3 km/h (2 Bft)
04.01.2015 16:42 4,7 C 1,7 C 89 % 1034,7 hPa 0,0 l/m 0 min 0 min 7 W/m 4,2 km/h (1 Bft)
04.01.2015 16:44 4,7 C 1,7 C 89 % 1034,7 hPa 0,0 l/m 0 min 0 min 7 W/m 6,3 km/h (2 Bft)
04.01.2015 16:46 4,7 C 1,7 C 89 % 1034,7 hPa 0,0 l/m 0 min 0 min 5 W/m 4,2 km/h (1 Bft)
04.01.2015 16:48 4,6 C 1,1 C 89 % 1034,7 hPa 0,0 l/m 0 min 0 min 5 W/m 8,4 km/h (2 Bft)
04.01.2015 16:50 4,6 C 1,1 C 89 % 1034,7 hPa 0,0 l/m 0 min 0 min 5 W/m 6,3 km/h (2 Bft)
04.01.2015 16:52 4,5 C 1,1 C 89 % 1034,7 hPa 0,0 l/m 0 min 0 min 1 W/m 4,2 km/h (1 Bft)
04.01.2015 16:54 4,5 C 1,1 C 89 % 1034,6 hPa 0,0 l/m 0 min 0 min 0 W/m 4,2 km/h (1 Bft)
04.01.2015 16:56 4,4 C 1,1 C 89 % 1034,7 hPa 0,0 l/m 0 min 0 min 0 W/m 6,3 km/h (2 Bft)
04.01.2015 16:58 4,4 C 1,1 C 89 % 1034,7 hPa 0,0 l/m 0 min 0 min 0 W/m 4,2 km/h (1 Bft)
04.01.2015 17:00 4,4 C 1,1 C 89 % 1034,7 hPa 0,0 l/m 0 min 0 min 0 W/m 6,3 km/h (2 Bft)
04.01.2015 17:02 4,3 C 0,6 C 89 % 1034,7 hPa 0,0 l/m 0 min 0 min 0 W/m 6,3 km/h (2 Bft)
04.01.2015 17:04 4,3 C 0,6 C 89 % 1034,6 hPa 0,0 l/m 0 min 0 min 0 W/m 6,3 km/h (2 Bft)
04.01.2015 17:06 4,2 C 0,6 C 89 % 1034,7 hPa 0,0 l/m 0 min 0 min 0 W/m 6,3 km/h (2 Bft)
04.01.2015 17:08 4,2 C 0,6 C 89 % 1034,7 hPa 0,0 l/m 0 min 0 min 0 W/m 4,2 km/h (1 Bft)
04.01.2015 17:10 4,1 C 0,6 C 89 % 1034,6 hPa 0,0 l/m 0 min 0 min 0 W/m 4,2 km/h (1 Bft)
04.01.2015 17:12 4,1 C 0,6 C 89 % 1034,6 hPa 0,0 l/m 0 min 0 min 0 W/m 6,3 km/h (2 Bft)
04.01.2015 17:14 4,0 C 0,6 C 89 % 1034,7 hPa 0,0 l/m 0 min 0 min 0 W/m 8,4 km/h (2 Bft)
04.01.2015 17:16 3,9 C 0,6 C 89 % 1034,7 hPa 0,0 l/m 0 min 0 min 0 W/m 4,2 km/h (1 Bft)
04.01.2015 17:18 3,9 C 0,6 C 89 % 1034,7 hPa 0,0 l/m 0 min 0 min 0 W/m 6,3 km/h (2 Bft)
04.01.2015 17:20 3,9 C 0,6 C 89 % 1034,7 hPa 0,0 l/m 0 min 0 min 0 W/m 4,2 km/h (1 Bft)
04.01.2015 17:22 3,8 C 0,0 C 89 % 1034,6 hPa 0,0 l/m 0 min 0 min 0 W/m 6,3 km/h (2 Bft)
04.01.2015 17:24 3,8 C 0,0 C 89 % 1034,6 hPa 0,0 l/m 0 min 0 min 0 W/m 6,3 km/h (2 Bft)
04.01.2015 17:26 3,7 C 0,0 C 89 % 1034,6 hPa 0,0 l/m 0 min 0 min 0 W/m 6,3 km/h (2 Bft)
04.01.2015 17:28 3,7 C 0,0 C 89 % 1034,6 hPa 0,0 l/m 0 min 0 min 0 W/m 6,3 km/h (2 Bft)
04.01.2015 17:30 3,7 C 0,0 C 89 % 1034,6 hPa 0,0 l/m 0 min 0 min 0 W/m 8,4 km/h (2 Bft)
04.01.2015 17:32 3,6 C 0,0 C 89 % 1034,5 hPa 0,0 l/m 0 min 0 min 0 W/m 6,3 km/h (2 Bft)
04.01.2015 17:34 3,6 C 0,0 C 89 % 1034,6 hPa 0,0 l/m 0 min 0 min 0 W/m 6,3 km/h (2 Bft)
04.01.2015 17:36 3,5 C 0,0 C 89 % 1034,6 hPa 0,0 l/m 0 min 0 min 0 W/m 6,3 km/h (2 Bft)
04.01.2015 17:38 3,4 C 0,0 C 89 % 1034,6 hPa 0,0 l/m 0 min 0 min 0 W/m 8,4 km/h (2 Bft)
04.01.2015 17:40 3,4 C 0,0 C 89 % 1034,6 hPa 0,0 l/m 0 min 0 min 0 W/m 8,4 km/h (2 Bft)
04.01.2015 17:42 3,4 C 0,0 C 89 % 1034,6 hPa 0,0 l/m 0 min 0 min 0 W/m 8,4 km/h (2 Bft)
04.01.2015 17:44 3,3 C 0,0 C 89 % 1034,6 hPa 0,0 l/m 0 min 0 min 0 W/m 8,4 km/h (2 Bft)
04.01.2015 17:46 3,3 C 0,0 C 89 % 1034,6 hPa 0,0 l/m 0 min 0 min 0 W/m 4,2 km/h (1 Bft)
04.01.2015 17:48 3,2 C 0,0 C 90 % 1034,6 hPa 0,0 l/m 0 min 0 min 0 W/m 6,3 km/h (2 Bft)
04.01.2015 17:50 3,2 C 0,0 C 90 % 1034,6 hPa 0,0 l/m 0 min 0 min 0 W/m 6,3 km/h (2 Bft)
04.01.2015 17:52 3,2 C 0,0 C 89 % 1034,7 hPa 0,0 l/m 0 min 0 min 0 W/m 6,3 km/h (2 Bft)
04.01.2015 17:54 3,1 C 0,0 C 89 % 1034,7 hPa 0,0 l/m 0 min 0 min 0 W/m 4,2 km/h (1 Bft)
04.01.2015 17:56 3,1 C 0,0 C 89 % 1034,7 hPa 0,0 l/m 0 min 0 min 0 W/m 6,3 km/h (2 Bft)
04.01.2015 17:58 3,0 C 0,0 C 90 % 1034,7 hPa 0,0 l/m 0 min 0 min 0 W/m 6,3 km/h (2 Bft)
04.01.2015 18:00 3,0 C 0,0 C 90 % 1034,7 hPa 0,0 l/m 0 min 0 min 0 W/m 6,3 km/h (2 Bft)
04.01.2015 18:02 2,9 C 0,0 C 90 % 1034,7 hPa 0,0 l/m 0 min 0 min 0 W/m 6,3 km/h (2 Bft)
04.01.2015 18:05 2,9 C 0,0 C 90 % 1034,7 hPa 0,0 l/m 0 min 0 min 0 W/m 4,2 km/h (1 Bft)
04.01.2015 18:06 2,9 C 0,0 C 90 % 1034,7 hPa 0,0 l/m 0 min 0 min 0 W/m 6,3 km/h (2 Bft)
04.01.2015 18:08 2,8 C 0,0 C 90 % 1034,8 hPa 0,0 l/m 0 min 0 min 0 W/m 6,3 km/h (2 Bft)
04.01.2015 18:10 2,8 C 0,0 C 90 % 1034,8 hPa 0,0 l/m 0 min 0 min 0 W/m 6,3 km/h (2 Bft)
04.01.2015 18:12 2,7 C 0,0 C 90 % 1034,8 hPa 0,0 l/m 0 min 0 min 0 W/m 4,2 km/h (1 Bft)
04.01.2015 18:14 2,7 C 0,0 C 90 % 1034,8 hPa 0,0 l/m 0 min 0 min 0 W/m 6,3 km/h (2 Bft)
04.01.2015 18:16 2,7 C 0,0 C 90 % 1034,8 hPa 0,0 l/m 0 min 0 min 0 W/m 8,4 km/h (2 Bft)
04.01.2015 18:18 2,7 C 0,0 C 90 % 1034,8 hPa 0,0 l/m 0 min 0 min 0 W/m 6,3 km/h (2 Bft)
04.01.2015 18:20 2,6 C 0,0 C 90 % 1034,8 hPa 0,0 l/m 0 min 0 min 0 W/m 6,3 km/h (2 Bft)
04.01.2015 18:22 2,6 C 0,0 C 90 % 1034,8 hPa 0,0 l/m 0 min 0 min 0 W/m 6,3 km/h (2 Bft)
04.01.2015 18:24 2,6 C 0,0 C 90 % 1034,9 hPa 0,0 l/m 0 min 0 min 0 W/m 4,2 km/h (1 Bft)
04.01.2015 18:26 2,6 C 0,0 C 90 % 1034,9 hPa 0,0 l/m 0 min 0 min 0 W/m 4,2 km/h (1 Bft)
04.01.2015 18:28 2,5 C 0,0 C 90 % 1034,9 hPa 0,0 l/m 0 min 0 min 0 W/m 4,2 km/h (1 Bft)
04.01.2015 18:30 2,4 C 0,0 C 90 % 1034,9 hPa 0,0 l/m 0 min 0 min 0 W/m 6,3 km/h (2 Bft)
04.01.2015 18:32 2,4 C -0,6 C 91 % 1034,9 hPa 0,0 l/m 0 min 0 min 0 W/m 6,3 km/h (2 Bft)
04.01.2015 18:34 2,4 C -0,6 C 91 % 1035,0 hPa 0,0 l/m 0 min 0 min 0 W/m 6,3 km/h (2 Bft)
04.01.2015 18:36 2,4 C -0,6 C 91 % 1035,0 hPa 0,0 l/m 0 min 0 min 0 W/m 6,3 km/h (2 Bft)
04.01.2015 18:38 2,4 C -0,6 C 91 % 1035,0 hPa 0,0 l/m 0 min 0 min 0 W/m 4,2 km/h (1 Bft)
04.01.2015 18:40 2,3 C -0,6 C 91 % 1035,0 hPa 0,0 l/m 0 min 0 min 0 W/m 4,2 km/h (1 Bft)
04.01.2015 18:42 2,3 C -0,6 C 91 % 1035,1 hPa 0,0 l/m 0 min 0 min 0 W/m 6,3 km/h (2 Bft)
04.01.2015 18:44 2,3 C -0,6 C 91 % 1035,0 hPa 0,0 l/m 0 min 0 min 0 W/m 6,3 km/h (2 Bft)
04.01.2015 18:46 2,3 C -0,6 C 91 % 1035,0 hPa 0,0 l/m 0 min 0 min 0 W/m 6,3 km/h (2 Bft)
04.01.2015 18:48 2,3 C -0,6 C 91 % 1035,0 hPa 0,0 l/m 0 min 0 min 0 W/m 6,3 km/h (2 Bft)
04.01.2015 18:50 2,2 C -0,6 C 91 % 1035,1 hPa 0,0 l/m 0 min 0 min 0 W/m 6,3 km/h (2 Bft)
04.01.2015 18:52 2,2 C -0,6 C 91 % 1035,1 hPa 0,0 l/m 0 min 0 min 0 W/m 4,2 km/h (1 Bft)
04.01.2015 18:54 2,2 C -0,6 C 91 % 1035,2 hPa 0,0 l/m 0 min 0 min 0 W/m 4,2 km/h (1 Bft)
04.01.2015 18:56 2,2 C -0,6 C 91 % 1035,1 hPa 0,0 l/m 0 min 0 min 0 W/m 2,1 km/h (1 Bft)
04.01.2015 18:58 2,2 C -0,6 C 91 % 1035,2 hPa 0,0 l/m 0 min 0 min 0 W/m 4,2 km/h (1 Bft)
04.01.2015 19:00 2,2 C -0,6 C 91 % 1035,2 hPa 0,0 l/m 0 min 0 min 0 W/m 6,3 km/h (2 Bft)
04.01.2015 19:02 2,1 C -1,1 C 91 % 1035,2 hPa 0,0 l/m 0 min 0 min 0 W/m 6,3 km/h (2 Bft)
04.01.2015 19:04 2,1 C -1,1 C 91 % 1035,3 hPa 0,0 l/m 0 min 0 min 0 W/m 6,3 km/h (2 Bft)
04.01.2015 19:06 2,1 C -1,1 C 91 % 1035,3 hPa 0,0 l/m 0 min 0 min 0 W/m 8,4 km/h (2 Bft)
04.01.2015 19:08 2,1 C -1,1 C 91 % 1035,4 hPa 0,0 l/m 0 min 0 min 0 W/m 8,4 km/h (2 Bft)
04.01.2015 19:10 2,0 C -1,1 C 91 % 1035,4 hPa 0,0 l/m 0 min 0 min 0 W/m 8,4 km/h (2 Bft)
04.01.2015 19:12 2,0 C -0,6 C 91 % 1035,4 hPa 0,0 l/m 0 min 0 min 0 W/m 6,3 km/h (2 Bft)
04.01.2015 19:14 2,0 C -0,6 C 92 % 1035,3 hPa 0,0 l/m 0 min 0 min 0 W/m 8,4 km/h (2 Bft)
04.01.2015 19:16 1,9 C -0,6 C 92 % 1035,4 hPa 0,0 l/m 0 min 0 min 0 W/m 6,3 km/h (2 Bft)
04.01.2015 19:18 1,9 C -0,6 C 92 % 1035,4 hPa 0,0 l/m 0 min 0 min 0 W/m 4,2 km/h (1 Bft)
04.01.2015 19:20 1,9 C -0,6 C 92 % 1035,4 hPa 0,0 l/m 0 min 0 min 0 W/m 6,3 km/h (2 Bft)
04.01.2015 19:22 1,9 C -0,6 C 92 % 1035,5 hPa 0,0 l/m 0 min 0 min 0 W/m 4,2 km/h (1 Bft)
04.01.2015 19:24 1,9 C -0,6 C 92 % 1035,5 hPa 0,0 l/m 0 min 0 min 0 W/m 6,3 km/h (2 Bft)
04.01.2015 19:26 1,8 C -1,1 C 92 % 1035,5 hPa 0,0 l/m 0 min 0 min 0 W/m 6,3 km/h (2 Bft)
04.01.2015 19:28 1,8 C -1,1 C 92 % 1035,5 hPa 0,0 l/m 0 min 0 min 0 W/m 6,3 km/h (2 Bft)
04.01.2015 19:30 1,8 C -1,1 C 92 % 1035,5 hPa 0,0 l/m 0 min 0 min 0 W/m 6,3 km/h (2 Bft)
04.01.2015 19:32 1,8 C -1,1 C 92 % 1035,5 hPa 0,0 l/m 0 min 0 min 0 W/m 6,3 km/h (2 Bft)
04.01.2015 19:34 1,8 C -1,1 C 92 % 1035,5 hPa 0,0 l/m 0 min 0 min 0 W/m 6,3 km/h (2 Bft)
04.01.2015 19:36 1,7 C -1,1 C 92 % 1035,5 hPa 0,0 l/m 0 min 0 min 0 W/m 8,4 km/h (2 Bft)
04.01.2015 19:38 1,7 C -1,1 C 92 % 1035,4 hPa 0,0 l/m 0 min 0 min 0 W/m 8,4 km/h (2 Bft)
04.01.2015 19:40 1,7 C -1,1 C 92 % 1035,4 hPa 0,0 l/m 0 min 0 min 0 W/m 8,4 km/h (2 Bft)
04.01.2015 19:42 1,7 C -1,1 C 92 % 1035,3 hPa 0,0 l/m 0 min 0 min 0 W/m 6,3 km/h (2 Bft)
04.01.2015 19:44 1,7 C -1,1 C 92 % 1035,3 hPa 0,0 l/m 0 min 0 min 0 W/m 6,3 km/h (2 Bft)
04.01.2015 19:46 1,7 C -1,1 C 92 % 1035,3 hPa 0,0 l/m 0 min 0 min 0 W/m 6,3 km/h (2 Bft)
04.01.2015 19:48 1,6 C -1,1 C 92 % 1035,3 hPa 0,0 l/m 0 min 0 min 0 W/m 6,3 km/h (2 Bft)
04.01.2015 19:50 1,6 C -1,1 C 92 % 1035,3 hPa 0,0 l/m 0 min 0 min 0 W/m 8,4 km/h (2 Bft)
04.01.2015 19:52 1,6 C -1,1 C 92 % 1035,3 hPa 0,0 l/m 0 min 0 min 0 W/m 6,3 km/h (2 Bft)
04.01.2015 19:54 1,6 C -1,1 C 92 % 1035,3 hPa 0,0 l/m 0 min 0 min 0 W/m 4,2 km/h (1 Bft)
04.01.2015 19:56 1,6 C -1,1 C 92 % 1035,3 hPa 0,0 l/m 0 min 0 min 0 W/m 6,3 km/h (2 Bft)
04.01.2015 19:58 1,5 C -1,7 C 92 % 1035,4 hPa 0,0 l/m 0 min 0 min 0 W/m 8,4 km/h (2 Bft)
04.01.2015 20:00 1,5 C -1,1 C 92 % 1035,3 hPa 0,0 l/m 0 min 0 min 0 W/m 8,4 km/h (2 Bft)
04.01.2015 20:02 1,4 C -1,7 C 92 % 1035,4 hPa 0,0 l/m 0 min 0 min 0 W/m 6,3 km/h (2 Bft)
04.01.2015 20:04 1,4 C -1,7 C 92 % 1035,3 hPa 0,0 l/m 0 min 0 min 0 W/m 8,4 km/h (2 Bft)
04.01.2015 20:06 1,4 C -1,7 C 92 % 1035,4 hPa 0,0 l/m 0 min 0 min 0 W/m 8,4 km/h (2 Bft)
04.01.2015 20:08 1,4 C -1,1 C 92 % 1035,4 hPa 0,0 l/m 0 min 0 min 0 W/m 6,3 km/h (2 Bft)
04.01.2015 20:10 1,3 C -1,1 C 92 % 1035,3 hPa 0,0 l/m 0 min 0 min 0 W/m 6,3 km/h (2 Bft)
04.01.2015 20:12 1,3 C -1,1 C 92 % 1035,4 hPa 0,0 l/m 0 min 0 min 0 W/m 6,3 km/h (2 Bft)
04.01.2015 20:14 1,3 C -1,1 C 92 % 1035,4 hPa 0,0 l/m 0 min 0 min 0 W/m 6,3 km/h (2 Bft)
04.01.2015 20:16 1,3 C -1,1 C 93 % 1035,5 hPa 0,0 l/m 0 min 0 min 0 W/m 6,3 km/h (2 Bft)
04.01.2015 20:18 1,3 C -1,1 C 93 % 1035,4 hPa 0,0 l/m 0 min 0 min 0 W/m 8,4 km/h (2 Bft)
04.01.2015 20:20 1,2 C -1,1 C 93 % 1035,5 hPa 0,0 l/m 0 min 0 min 0 W/m 8,4 km/h (2 Bft)
04.01.2015 20:22 1,3 C -1,1 C 93 % 1035,5 hPa 0,0 l/m 0 min 0 min 0 W/m 8,4 km/h (2 Bft)
04.01.2015 20:24 1,2 C -1,1 C 93 % 1035,5 hPa 0,0 l/m 0 min 0 min 0 W/m 8,4 km/h (2 Bft)
04.01.2015 20:26 1,2 C -1,1 C 93 % 1035,5 hPa 0,0 l/m 0 min 0 min 0 W/m 8,4 km/h (2 Bft)
04.01.2015 20:28 1,2 C -1,1 C 93 % 1035,5 hPa 0,0 l/m 0 min 0 min 0 W/m 8,4 km/h (2 Bft)
04.01.2015 20:30 1,2 C -1,1 C 93 % 1035,5 hPa 0,0 l/m 0 min 0 min 0 W/m 8,4 km/h (2 Bft)
04.01.2015 20:32 1,2 C -0,6 C 93 % 1035,5 hPa 0,0 l/m 0 min 0 min 0 W/m 10,5 km/h (2 Bft)
04.01.2015 20:34 1,2 C -0,6 C 93 % 1035,5 hPa 0,0 l/m 0 min 0 min 0 W/m 6,3 km/h (2 Bft)
04.01.2015 20:36 1,2 C -0,6 C 93 % 1035,6 hPa 0,0 l/m 0 min 0 min 0 W/m 10,5 km/h (2 Bft)
04.01.2015 20:38 1,2 C -0,6 C 93 % 1035,6 hPa 0,0 l/m 0 min 0 min 0 W/m 8,4 km/h (2 Bft)
04.01.2015 20:40 1,2 C -0,6 C 93 % 1035,6 hPa 0,0 l/m 0 min 0 min 0 W/m 8,4 km/h (2 Bft)
04.01.2015 20:42 1,2 C -0,6 C 93 % 1035,6 hPa 0,0 l/m 0 min 0 min 0 W/m 8,4 km/h (2 Bft)
04.01.2015 20:44 1,2 C -0,6 C 93 % 1035,5 hPa 0,0 l/m 0 min 0 min 0 W/m 8,4 km/h (2 Bft)
04.01.2015 20:46 1,2 C -1,1 C 93 % 1035,6 hPa 0,0 l/m 0 min 0 min 0 W/m 6,3 km/h (2 Bft)
04.01.2015 20:48 1,2 C -1,1 C 93 % 1035,6 hPa 0,0 l/m 0 min 0 min 0 W/m 6,3 km/h (2 Bft)
04.01.2015 20:50 1,2 C -1,1 C 93 % 1035,6 hPa 0,0 l/m 0 min 0 min 0 W/m 6,3 km/h (2 Bft)
04.01.2015 20:52 1,2 C -1,1 C 93 % 1035,6 hPa 0,0 l/m 0 min 0 min 0 W/m 6,3 km/h (2 Bft)
04.01.2015 20:54 1,2 C -1,1 C 93 % 1035,7 hPa 0,0 l/m 0 min 0 min 0 W/m 6,3 km/h (2 Bft)
04.01.2015 20:56 1,2 C -0,6 C 93 % 1035,6 hPa 0,0 l/m 0 min 0 min 0 W/m 6,3 km/h (2 Bft)
04.01.2015 20:58 1,2 C -0,6 C 94 % 1035,6 hPa 0,0 l/m 0 min 0 min 0 W/m 8,4 km/h (2 Bft)
04.01.2015 21:00 1,2 C -0,6 C 94 % 1035,6 hPa 0,0 l/m 0 min 0 min 0 W/m 8,4 km/h (2 Bft)
04.01.2015 21:02 1,2 C -0,6 C 94 % 1035,7 hPa 0,0 l/m 0 min 0 min 0 W/m 8,4 km/h (2 Bft)
04.01.2015 21:04 1,2 C -0,6 C 93 % 1035,7 hPa 0,0 l/m 0 min 0 min 0 W/m 8,4 km/h (2 Bft)
04.01.2015 21:06 1,2 C -0,6 C 94 % 1035,8 hPa 0,0 l/m 0 min 0 min 0 W/m 10,5 km/h (2 Bft)
04.01.2015 21:08 1,1 C -0,6 C 94 % 1035,7 hPa 0,0 l/m 0 min 0 min 0 W/m 8,4 km/h (2 Bft)
04.01.2015 21:10 1,1 C -0,6 C 94 % 1035,7 hPa 0,0 l/m 0 min 0 min 0 W/m 8,4 km/h (2 Bft)
04.01.2015 21:12 1,1 C -0,6 C 94 % 1035,7 hPa 0,0 l/m 0 min 0 min 0 W/m 8,4 km/h (2 Bft)
04.01.2015 21:14 1,1 C -0,6 C 94 % 1035,7 hPa 0,0 l/m 0 min 0 min 0 W/m 10,5 km/h (2 Bft)
04.01.2015 21:16 1,1 C -0,6 C 94 % 1035,7 hPa 0,0 l/m 0 min 0 min 0 W/m 10,5 km/h (2 Bft)
04.01.2015 21:18 1,1 C -0,6 C 94 % 1035,7 hPa 0,0 l/m 0 min 0 min 0 W/m 8,4 km/h (2 Bft)
04.01.2015 21:20 1,1 C -0,6 C 94 % 1035,7 hPa 0,0 l/m 0 min 0 min 0 W/m 14,6 km/h (3 Bft)
04.01.2015 21:22 1,1 C -0,6 C 94 % 1035,7 hPa 0,0 l/m 0 min 0 min 0 W/m 8,4 km/h (2 Bft)
04.01.2015 21:24 1,1 C -0,6 C 94 % 1035,8 hPa 0,0 l/m 0 min 0 min 0 W/m 8,4 km/h (2 Bft)
04.01.2015 21:26 1,1 C -0,6 C 94 % 1035,8 hPa 0,0 l/m 0 min 0 min 0 W/m 8,4 km/h (2 Bft)
04.01.2015 21:28 1,1 C -0,6 C 94 % 1035,8 hPa 0,0 l/m 0 min 0 min 0 W/m 10,5 km/h (2 Bft)
04.01.2015 21:30 1,0 C -0,6 C 94 % 1035,8 hPa 0,0 l/m 0 min 0 min 0 W/m 10,5 km/h (2 Bft)
04.01.2015 21:32 1,0 C -0,6 C 94 % 1035,9 hPa 0,0 l/m 0 min 0 min 0 W/m 10,5 km/h (2 Bft)
04.01.2015 21:34 1,1 C -0,6 C 94 % 1035,9 hPa 0,0 l/m 0 min 0 min 0 W/m 10,5 km/h (2 Bft)
04.01.2015 21:36 1,1 C -0,6 C 94 % 1035,9 hPa 0,0 l/m 0 min 0 min 0 W/m 12,6 km/h (3 Bft)
04.01.2015 21:38 1,1 C -0,6 C 94 % 1035,9 hPa 0,0 l/m 0 min 0 min 0 W/m 8,4 km/h (2 Bft)
04.01.2015 21:40 1,1 C -0,6 C 94 % 1036,0 hPa 0,0 l/m 0 min 0 min 0 W/m 10,5 km/h (2 Bft)
04.01.2015 21:42 1,1 C -0,6 C 94 % 1036,0 hPa 0,0 l/m 0 min 0 min 0 W/m 8,4 km/h (2 Bft)
04.01.2015 21:44 1,1 C -0,6 C 94 % 1036,0 hPa 0,0 l/m 0 min 0 min 0 W/m 8,4 km/h (2 Bft)
04.01.2015 21:46 1,1 C -0,6 C 94 % 1036,1 hPa 0,0 l/m 0 min 0 min 0 W/m 8,4 km/h (2 Bft)
04.01.2015 21:48 1,1 C -0,6 C 94 % 1036,1 hPa 0,0 l/m 0 min 0 min 0 W/m 8,4 km/h (2 Bft)
04.01.2015 21:50 1,1 C -0,6 C 94 % 1036,2 hPa 0,0 l/m 0 min 0 min 0 W/m 8,4 km/h (2 Bft)
04.01.2015 21:52 1,1 C -0,6 C 94 % 1036,1 hPa 0,0 l/m 0 min 0 min 0 W/m 10,5 km/h (2 Bft)
04.01.2015 21:54 1,1 C -0,6 C 94 % 1036,1 hPa 0,0 l/m 0 min 0 min 0 W/m 8,4 km/h (2 Bft)
04.01.2015 21:56 1,1 C -0,6 C 94 % 1036,0 hPa 0,0 l/m 0 min 0 min 0 W/m 12,6 km/h (3 Bft)
04.01.2015 21:58 1,1 C -0,6 C 94 % 1036,1 hPa 0,0 l/m 0 min 0 min 0 W/m 10,5 km/h (2 Bft)
04.01.2015 22:00 1,1 C -0,6 C 94 % 1036,1 hPa 0,0 l/m 0 min 0 min 0 W/m 10,5 km/h (2 Bft)
04.01.2015 22:02 1,1 C -0,6 C 95 % 1036,1 hPa 0,0 l/m 0 min 0 min 0 W/m 10,5 km/h (2 Bft)
04.01.2015 22:04 1,1 C -0,6 C 95 % 1036,1 hPa 0,0 l/m 0 min 0 min 0 W/m 10,5 km/h (2 Bft)
04.01.2015 22:06 1,1 C -0,6 C 95 % 1036,1 hPa 0,0 l/m 0 min 0 min 0 W/m 10,5 km/h (2 Bft)
04.01.2015 22:08 1,1 C -0,6 C 95 % 1036,1 hPa 0,0 l/m 0 min 0 min 0 W/m 12,6 km/h (3 Bft)
04.01.2015 22:10 1,1 C -0,6 C 95 % 1036,1 hPa 0,0 l/m 0 min 0 min 0 W/m 12,6 km/h (3 Bft)
04.01.2015 22:12 1,1 C 0,0 C 95 % 1036,1 hPa 0,0 l/m 0 min 0 min 0 W/m 12,6 km/h (3 Bft)
04.01.2015 22:14 1,1 C -0,6 C 95 % 1036,1 hPa 0,0 l/m 0 min 0 min 0 W/m 8,4 km/h (2 Bft)
04.01.2015 22:16 1,1 C -0,6 C 95 % 1036,1 hPa 0,0 l/m 0 min 0 min 0 W/m 10,5 km/h (2 Bft)
04.01.2015 22:18 1,1 C -0,6 C 95 % 1036,1 hPa 0,0 l/m 0 min 0 min 0 W/m 12,6 km/h (3 Bft)
04.01.2015 22:20 1,1 C -0,6 C 95 % 1036,1 hPa 0,0 l/m 0 min 0 min 0 W/m 12,6 km/h (3 Bft)
04.01.2015 22:22 1,1 C -0,6 C 95 % 1036,1 hPa 0,0 l/m 0 min 0 min 0 W/m 12,6 km/h (3 Bft)
04.01.2015 22:24 1,1 C 0,0 C 95 % 1036,1 hPa 0,0 l/m 0 min 0 min 0 W/m 18,8 km/h (3 Bft)
04.01.2015 22:26 1,1 C -0,6 C 95 % 1036,1 hPa 0,0 l/m 0 min 0 min 0 W/m 12,6 km/h (3 Bft)
04.01.2015 22:28 1,1 C -0,6 C 95 % 1036,1 hPa 0,0 l/m 0 min 0 min 0 W/m 16,7 km/h (3 Bft)
04.01.2015 22:30 1,1 C -0,6 C 95 % 1036,1 hPa 0,0 l/m 0 min 0 min 0 W/m 14,6 km/h (3 Bft)
04.01.2015 22:32 1,1 C -0,6 C 95 % 1036,1 hPa 0,0 l/m 0 min 0 min 0 W/m 12,6 km/h (3 Bft)
04.01.2015 22:34 1,1 C -0,6 C 95 % 1036,2 hPa 0,0 l/m 0 min 0 min 0 W/m 14,6 km/h (3 Bft)
04.01.2015 22:36 1,1 C -0,6 C 95 % 1036,1 hPa 0,0 l/m 0 min 0 min 0 W/m 10,5 km/h (2 Bft)
04.01.2015 22:38 1,1 C -0,6 C 95 % 1036,1 hPa 0,0 l/m 0 min 0 min 0 W/m 14,6 km/h (3 Bft)
04.01.2015 22:40 1,1 C -0,6 C 95 % 1036,0 hPa 0,0 l/m 0 min 0 min 0 W/m 14,6 km/h (3 Bft)
04.01.2015 22:42 1,1 C -0,6 C 95 % 1036,0 hPa 0,0 l/m 0 min 0 min 0 W/m 12,6 km/h (3 Bft)
04.01.2015 22:44 1,1 C -0,6 C 95 % 1035,9 hPa 0,0 l/m 0 min 0 min 0 W/m 20,9 km/h (4 Bft)
04.01.2015 22:46 1,1 C -0,6 C 95 % 1035,9 hPa 0,0 l/m 0 min 0 min 0 W/m 14,6 km/h (3 Bft)
04.01.2015 22:48 1,0 C -0,6 C 95 % 1036,0 hPa 0,0 l/m 0 min 0 min 0 W/m 16,7 km/h (3 Bft)
04.01.2015 22:50 1,0 C -0,6 C 95 % 1036,1 hPa 0,0 l/m 0 min 0 min 0 W/m 18,8 km/h (3 Bft)
04.01.2015 22:52 1,0 C 0,0 C 95 % 1036,0 hPa 0,0 l/m 0 min 0 min 0 W/m 16,7 km/h (3 Bft)
04.01.2015 22:54 1,1 C 0,0 C 95 % 1036,1 hPa 0,0 l/m 0 min 0 min 0 W/m 14,6 km/h (3 Bft)
04.01.2015 22:56 1,1 C 0,0 C 95 % 1036,1 hPa 0,0 l/m 0 min 0 min 0 W/m 14,6 km/h (3 Bft)
04.01.2015 22:58 1,1 C 0,0 C 95 % 1036,1 hPa 0,0 l/m 0 min 0 min 0 W/m 12,6 km/h (3 Bft)
04.01.2015 23:00 1,1 C -0,6 C 95 % 1036,0 hPa 0,0 l/m 0 min 0 min 0 W/m 10,5 km/h (2 Bft)
04.01.2015 23:02 1,1 C -0,6 C 95 % 1036,0 hPa 0,0 l/m 0 min 0 min 0 W/m 14,6 km/h (3 Bft)
04.01.2015 23:04 1,1 C -0,6 C 95 % 1036,0 hPa 0,0 l/m 0 min 0 min 0 W/m 16,7 km/h (3 Bft)
04.01.2015 23:06 1,1 C 0,0 C 95 % 1036,1 hPa 0,0 l/m 0 min 0 min 0 W/m 20,9 km/h (4 Bft)
04.01.2015 23:08 1,1 C 0,0 C 95 % 1036,1 hPa 0,0 l/m 0 min 0 min 0 W/m 20,9 km/h (4 Bft)
04.01.2015 23:10 1,1 C 0,0 C 96 % 1036,1 hPa 0,0 l/m 0 min 0 min 0 W/m 20,9 km/h (4 Bft)
04.01.2015 23:12 1,1 C 0,0 C 96 % 1036,1 hPa 0,0 l/m 0 min 0 min 0 W/m 20,9 km/h (4 Bft)
04.01.2015 23:14 1,1 C 0,0 C 96 % 1036,1 hPa 0,0 l/m 0 min 0 min 0 W/m 16,7 km/h (3 Bft)
04.01.2015 23:16 1,1 C 0,0 C 96 % 1036,1 hPa 0,0 l/m 0 min 0 min 0 W/m 18,8 km/h (3 Bft)
04.01.2015 23:18 1,1 C 0,0 C 96 % 1036,2 hPa 0,0 l/m 0 min 0 min 0 W/m 18,8 km/h (3 Bft)
04.01.2015 23:20 1,2 C 0,0 C 96 % 1036,2 hPa 0,0 l/m 0 min 0 min 0 W/m 23,0 km/h (4 Bft)
04.01.2015 23:22 1,2 C 0,0 C 96 % 1036,2 hPa 0,0 l/m 0 min 0 min 0 W/m 16,7 km/h (3 Bft)
04.01.2015 23:24 1,2 C 0,0 C 96 % 1036,2 hPa 0,0 l/m 0 min 0 min 0 W/m 20,9 km/h (4 Bft)
04.01.2015 23:26 1,2 C 0,0 C 96 % 1036,2 hPa 0,0 l/m 0 min 0 min 0 W/m 18,8 km/h (3 Bft)
04.01.2015 23:28 1,2 C 0,0 C 96 % 1036,2 hPa 0,0 l/m 0 min 0 min 0 W/m 20,9 km/h (4 Bft)
04.01.2015 23:30 1,2 C 0,0 C 96 % 1036,2 hPa 0,0 l/m 0 min 0 min 0 W/m 18,8 km/h (3 Bft)
04.01.2015 23:32 1,2 C 0,0 C 96 % 1036,3 hPa 0,0 l/m 0 min 0 min 0 W/m 14,6 km/h (3 Bft)
04.01.2015 23:34 1,2 C 0,6 C 96 % 1036,3 hPa 0,0 l/m 0 min 0 min 0 W/m 14,6 km/h (3 Bft)
04.01.2015 23:36 1,2 C 0,6 C 96 % 1036,3 hPa 0,0 l/m 0 min 0 min 0 W/m 20,9 km/h (4 Bft)
04.01.2015 23:38 1,2 C 0,6 C 96 % 1036,3 hPa 0,0 l/m 0 min 0 min 0 W/m 25,1 km/h (4 Bft)
04.01.2015 23:40 1,2 C 0,6 C 96 % 1036,2 hPa 0,0 l/m 0 min 0 min 0 W/m 14,6 km/h (3 Bft)
04.01.2015 23:42 1,3 C 0,6 C 96 % 1036,2 hPa 0,0 l/m 0 min 0 min 0 W/m 16,7 km/h (3 Bft)
04.01.2015 23:44 1,3 C 0,0 C 96 % 1036,2 hPa 0,0 l/m 0 min 0 min 0 W/m 20,9 km/h (4 Bft)
04.01.2015 23:46 1,3 C 0,6 C 96 % 1036,2 hPa 0,0 l/m 0 min 0 min 0 W/m 18,8 km/h (3 Bft)
04.01.2015 23:48 1,3 C 0,6 C 96 % 1036,2 hPa 0,0 l/m 0 min 0 min 0 W/m 18,8 km/h (3 Bft)
04.01.2015 23:50 1,3 C 0,6 C 96 % 1036,2 hPa 0,0 l/m 0 min 0 min 0 W/m 20,9 km/h (4 Bft)
04.01.2015 23:52 1,3 C 0,6 C 96 % 1036,2 hPa 0,0 l/m 0 min 0 min 0 W/m 23,0 km/h (4 Bft)
04.01.2015 23:54 1,3 C 0,6 C 96 % 1036,1 hPa 0,0 l/m 0 min 0 min 0 W/m 20,9 km/h (4 Bft)
04.01.2015 23:56 1,3 C 0,6 C 96 % 1036,2 hPa 0,0 l/m 0 min 0 min 0 W/m 25,1 km/h (4 Bft)
04.01.2015 23:58 1,3 C 0,6 C 96 % 1036,2 hPa 0,0 l/m 0 min 0 min 0 W/m 23,0 km/h (4 Bft)
_ Min-Zeit 08:58 08:34 14:20 00:00 - - - - 18:56
Minimum _ 0,3 C -1,7 C 85 % 1024,1 hPa - - - - 2,1 km/h (1 Bft)
_ Max-Zeit 14:06 12:54 00:12 23:32 14:42 08:52 00:00 12:50 13:18
Maximum _ 6,6 C 4,4 C 98 % 1036,3 hPa 0,2 l/m 2 min 2 min 265 W/m 29,3 km/h
W (5 Bft)
Durchschnitt _ 2,5 C 0,7 C 94 % 1032,0 hPa #0,2 l/m #6:52 h #3:44 h 125 W/m 12,0 km/h (2 Bft)
© 2015 W. Hausmann